| time (UTC) | temp F | wind direction | speed MPH | gust MPH | rain 1hr in | rain 24hr in | rain mn in | humidity % | barometer mb |
| 20260507142007 | 55 | 0 | 1.0 | 5.0 | 0.00 | 0.00 | 0.00 | 100 | 953.6 |
| 20260507141804 | 55 | 184 | 1.0 | 6.0 | 0.00 | 0.00 | 0.00 | 100 | 953.6 |
| 20260507141602 | 55 | 0 | 1.0 | 6.0 | 0.00 | 0.00 | 0.00 | 100 | 953.6 |
| 20260507141501 | 55 | 0 | 1.0 | 4.0 | 0.00 | 0.00 | 0.00 | 100 | 953.6 |
| 20260507141358 | 55 | 0 | 0.0 | 4.0 | 0.00 | 0.00 | 0.00 | 100 | 953.6 |
| 20260507141155 | 55 | 0 | 0.0 | 3.0 | 0.00 | 0.00 | 0.00 | 100 | 953.6 |
| 20260507140952 | 55 | 0 | 1.0 | 3.0 | 0.00 | 0.00 | 0.00 | 100 | 953.5 |
| 20260507140851 | 55 | 0 | 1.0 | 3.0 | 0.00 | 0.00 | 0.00 | 100 | 953.5 |
| 20260507140749 | 55 | 0 | 1.0 | 3.0 | 0.00 | 0.00 | 0.00 | 100 | 953.5 |
| 20260507140546 | 55 | 122 | 2.0 | 4.0 | 0.00 | 0.00 | 0.00 | 100 | 953.5 |
| 20260507140342 | 55 | 143 | 2.0 | 5.0 | 0.00 | 0.00 | 0.00 | 100 | 953.6 |
| 20260507140242 | 55 | 149 | 2.0 | 5.0 | 0.00 | 0.00 | 0.00 | 100 | 953.5 |
| 20260507140052 | 55 | 148 | 3.0 | 5.0 | 0.00 | 0.00 | 0.00 | 100 | 953.8 |
| 20260507135849 | 56 | 124 | 3.0 | 4.0 | 0.00 | 0.00 | 0.00 | 100 | 953.7 |
| 20260507135748 | 56 | 122 | 2.0 | 4.0 | 0.00 | 0.00 | 0.00 | 100 | 953.7 |
| 20260507135646 | 56 | 120 | 2.0 | 4.0 | 0.00 | 0.00 | 0.00 | 100 | 953.7 |
| 20260507135443 | 56 | 128 | 1.0 | 3.0 | 0.00 | 0.00 | 0.00 | 100 | 953.8 |
| 20260507135240 | 57 | 163 | 1.0 | 2.0 | 0.00 | 0.00 | 0.00 | 100 | 953.8 |
| 20260507135139 | 57 | 173 | 1.0 | 3.0 | 0.00 | 0.00 | 0.00 | 100 | 953.8 |
| 20260507135034 | 57 | 169 | 1.0 | 3.0 | 0.00 | 0.00 | 0.00 | 100 | 953.8 |
| 20260507134830 | 57 | 147 | 1.0 | 3.0 | 0.00 | 0.00 | 0.00 | 100 | 953.7 |
| 20260507134627 | 57 | 0 | 1.0 | 2.0 | 0.00 | 0.00 | 0.00 | 100 | 953.7 |
| 20260507134513 | 57 | 159 | 1.0 | 2.0 | 0.00 | 0.00 | 0.00 | 100 | 953.8 |
| 20260507134410 | 57 | 157 | 1.0 | 2.0 | 0.00 | 0.00 | 0.00 | 100 | 953.8 |
| 20260507134207 | 57 | 162 | 1.0 | 2.0 | 0.00 | 0.00 | 0.00 | 100 | 953.8 |
| 20260507134005 | 57 | 163 | 1.0 | 2.0 | 0.00 | 0.00 | 0.00 | 100 | 953.7 |
| 20260507133904 | 57 | 136 | 1.0 | 2.0 | 0.00 | 0.00 | 0.00 | 100 | 953.7 |
| 20260507133801 | 57 | 132 | 1.0 | 2.0 | 0.00 | 0.00 | 0.00 | 100 | 953.7 |
| 20260507133558 | 57 | 138 | 2.0 | 3.0 | 0.00 | 0.00 | 0.00 | 100 | 953.6 |
| 20260507133355 | 57 | 104 | 1.0 | 3.0 | 0.00 | 0.00 | 0.00 | 100 | 953.6 |
| 20260507133254 | 57 | 75 | 1.0 | 2.0 | 0.00 | 0.00 | 0.00 | 100 | 953.6 |
| 20260507133152 | 57 | 68 | 1.0 | 3.0 | 0.00 | 0.00 | 0.00 | 100 | 953.7 |
| 20260507132949 | 57 | 98 | 2.0 | 5.0 | 0.00 | 0.00 | 0.00 | 100 | 953.6 |
| 20260507132747 | 57 | 141 | 3.0 | 6.0 | 0.00 | 0.00 | 0.00 | 100 | 953.8 |
| 20260507132646 | 57 | 147 | 4.0 | 6.0 | 0.00 | 0.00 | 0.00 | 100 | 953.8 |
| 20260507132544 | 57 | 150 | 3.0 | 6.0 | 0.00 | 0.00 | 0.00 | 100 | 953.7 |
| 20260507132341 | 57 | 132 | 2.0 | 6.0 | 0.00 | 0.00 | 0.00 | 100 | 953.7 |
| 20260507132137 | 57 | 74 | 2.0 | 6.0 | 0.00 | 0.00 | 0.00 | 100 | 953.6 |
| 20260507132037 | 57 | 71 | 3.0 | 6.0 | 0.00 | 0.00 | 0.00 | 100 | 953.7 |
| 20260507131934 | 57 | 63 | 3.0 | 7.0 | 0.00 | 0.00 | 0.00 | 100 | 953.7 |
| 20260507131732 | 57 | 43 | 4.0 | 7.0 | 0.00 | 0.00 | 0.00 | 100 | 953.7 |
| 20260507131529 | 58 | 30 | 4.0 | 8.0 | 0.00 | 0.00 | 0.00 | 100 | 953.7 |
| 20260507131429 | 58 | 28 | 4.0 | 8.0 | 0.00 | 0.00 | 0.00 | 100 | 953.7 |
| 20260507131327 | 58 | 29 | 4.0 | 8.0 | 0.00 | 0.00 | 0.00 | 100 | 953.7 |
| 20260507131123 | 58 | 30 | 4.0 | 6.0 | 0.00 | 0.00 | 0.00 | 100 | 953.5 |
| 20260507130920 | 58 | 26 | 3.0 | 6.0 | 0.00 | 0.00 | 0.00 | 100 | 953.6 |
| 20260507130819 | 58 | 30 | 4.0 | 6.0 | 0.00 | 0.00 | 0.00 | 100 | 953.5 |
| 20260507130717 | 58 | 34 | 4.0 | 6.0 | 0.00 | 0.00 | 0.00 | 100 | 953.5 |
| 20260507130514 | 59 | 31 | 4.0 | 6.0 | 0.00 | 0.00 | 0.00 | 100 | 953.5 |
| 20260507130311 | 59 | 24 | 3.0 | 6.0 | 0.00 | 0.00 | 0.00 | 100 | 953.5 |
| 20260507130210 | 59 | 13 | 3.0 | 6.0 | 0.00 | 0.00 | 0.00 | 100 | 953.5 |
| 20260507130107 | 59 | 19 | 3.0 | 6.0 | 0.00 | 0.00 | 0.00 | 100 | 953.5 |
| 20260507125904 | 59 | 21 | 3.0 | 6.0 | 0.00 | 0.00 | 0.00 | 100 | 953.6 |
| 20260507125701 | 59 | 31 | 3.0 | 5.0 | 0.00 | 0.00 | 0.00 | 100 | 953.5 |
| 20260507125600 | 59 | 32 | 3.0 | 4.0 | 0.00 | 0.00 | 0.00 | 100 | 953.5 |
| 20260507125458 | 59 | 40 | 3.0 | 5.0 | 0.00 | 0.00 | 0.00 | 100 | 953.5 |
| 20260507125254 | 59 | 53 | 3.0 | 6.0 | 0.00 | 0.00 | 0.00 | 100 | 953.6 |
| 20260507125051 | 59 | 68 | 3.0 | 6.0 | 0.00 | 0.00 | 0.00 | 100 | 953.5 |
| 20260507124950 | 59 | 76 | 3.0 | 6.0 | 0.00 | 0.00 | 0.00 | 100 | 953.5 |
| 20260507124844 | 59 | 66 | 3.0 | 6.0 | 0.00 | 0.00 | 0.00 | 100 | 953.5 |
| 20260507124642 | 59 | 62 | 5.0 | 8.0 | 0.00 | 0.00 | 0.00 | 100 | 953.5 |
| 20260507124439 | 59 | 57 | 5.0 | 8.0 | 0.00 | 0.00 | 0.00 | 100 | 953.5 |
| 20260507124338 | 59 | 57 | 5.0 | 7.0 | 0.00 | 0.00 | 0.00 | 100 | 953.5 |
| 20260507124237 | 59 | 55 | 4.0 | 7.0 | 0.00 | 0.00 | 0.00 | 100 | 953.6 |
| 20260507124033 | 60 | 65 | 3.0 | 5.0 | 0.00 | 0.00 | 0.00 | 100 | 953.6 |
| 20260507123831 | 60 | 50 | 3.0 | 5.0 | 0.00 | 0.00 | 0.00 | 100 | 953.6 |
| 20260507123731 | 60 | 48 | 2.0 | 5.0 | 0.00 | 0.00 | 0.00 | 100 | 953.6 |
| 20260507123628 | 60 | 48 | 3.0 | 6.0 | 0.00 | 0.00 | 0.00 | 100 | 953.5 |
| 20260507123425 | 60 | 47 | 4.0 | 6.0 | 0.00 | 0.00 | 0.00 | 100 | 953.5 |
| 20260507123222 | 60 | 47 | 5.0 | 8.0 | 0.00 | 0.00 | 0.00 | 100 | 953.4 |
| 20260507123121 | 59 | 50 | 5.0 | 8.0 | 0.00 | 0.00 | 0.00 | 100 | 953.4 |
| 20260507123019 | 59 | 55 | 5.0 | 8.0 | 0.00 | 0.00 | 0.00 | 100 | 953.5 |
| 20260507122815 | 60 | 80 | 4.0 | 7.0 | 0.00 | 0.00 | 0.00 | 100 | 953.5 |
| 20260507122612 | 60 | 111 | 4.0 | 7.0 | 0.00 | 0.00 | 0.00 | 100 | 953.5 |
| 20260507122512 | 60 | 128 | 4.0 | 8.0 | 0.00 | 0.00 | 0.00 | 100 | 953.4 |
| 20260507122410 | 60 | 129 | 4.0 | 8.0 | 0.00 | 0.00 | 0.00 | 100 | 953.4 |
| 20260507122206 | 60 | 107 | 3.0 | 8.0 | 0.00 | 0.00 | 0.00 | 100 | 953.4 |
| 20260507122004 | 61 | 65 | 3.0 | 7.0 | 0.00 | 0.00 | 0.00 | 100 | 953.3 |
| 20260507121902 | 61 | 60 | 3.0 | 7.0 | 0.00 | 0.00 | 0.00 | 100 | 953.3 |
| 20260507121800 | 61 | 51 | 3.0 | 4.0 | 0.00 | 0.00 | 0.00 | 100 | 953.4 |
| 20260507121557 | 61 | 19 | 3.0 | 5.0 | 0.00 | 0.00 | 0.00 | 100 | 953.3 |
| 20260507121354 | 60 | 7 | 4.0 | 5.0 | 0.00 | 0.00 | 0.00 | 100 | 953.3 |
| 20260507121253 | 60 | 8 | 4.0 | 6.0 | 0.00 | 0.00 | 0.00 | 100 | 953.3 |
| 20260507121151 | 60 | 1 | 4.0 | 6.0 | 0.00 | 0.00 | 0.00 | 100 | 953.3 |
| 20260507120948 | 60 | 357 | 4.0 | 6.0 | 0.00 | 0.00 | 0.00 | 100 | 953.4 |
| 20260507120745 | 60 | 357 | 5.0 | 7.0 | 0.00 | 0.00 | 0.00 | 100 | 953.4 |
| 20260507120645 | 60 | 354 | 5.0 | 7.0 | 0.00 | 0.00 | 0.00 | 100 | 953.3 |
| 20260507120542 | 60 | 349 | 5.0 | 7.0 | 0.00 | 0.00 | 0.00 | 100 | 953.3 |
| 20260507120339 | 60 | 345 | 6.0 | 8.0 | 0.00 | 0.00 | 0.00 | 100 | 953.4 |
| 20260507120136 | 60 | 345 | 6.0 | 8.0 | 0.00 | 0.00 | 0.00 | 100 | 953.4 |
| 20260507120036 | 60 | 341 | 6.0 | 8.0 | 0.00 | 0.00 | 0.00 | 100 | 953.4 |
| 20260507115934 | 60 | 339 | 5.0 | 7.0 | 0.00 | 0.00 | 0.00 | 100 | 953.4 |
| 20260507115730 | 61 | 330 | 5.0 | 8.0 | 0.00 | 0.00 | 0.00 | 100 | 953.4 |
| 20260507115527 | 61 | 332 | 5.0 | 8.0 | 0.00 | 0.00 | 0.00 | 100 | 953.4 |
| 20260507115426 | 61 | 331 | 5.0 | 8.0 | 0.00 | 0.00 | 0.00 | 100 | 953.3 |
| 20260507115324 | 61 | 330 | 5.0 | 7.0 | 0.00 | 0.00 | 0.00 | 100 | 953.4 |
| 20260507115121 | 61 | 324 | 4.0 | 6.0 | 0.00 | 0.00 | 0.00 | 100 | 953.3 |
| 20260507114918 | 62 | 321 | 3.0 | 6.0 | 0.00 | 0.00 | 0.00 | 100 | 953.4 |
| 20260507114817 | 62 | 317 | 3.0 | 5.0 | 0.00 | 0.00 | 0.00 | 100 | 953.4 |
| 20260507114711 | 62 | 311 | 3.0 | 5.0 | 0.00 | 0.00 | 0.00 | 100 | 953.3 |
| 20260507114508 | 62 | 301 | 4.0 | 7.0 | 0.00 | 0.00 | 0.00 | 100 | 953.3 |
| 20260507114305 | 62 | 303 | 4.0 | 7.0 | 0.00 | 0.00 | 0.00 | 100 | 953.3 |
| 20260507114204 | 62 | 302 | 4.0 | 7.0 | 0.00 | 0.00 | 0.00 | 100 | 953.4 |
| 20260507114102 | 62 | 306 | 4.0 | 8.0 | 0.00 | 0.00 | 0.00 | 100 | 953.3 |
| 20260507113858 | 62 | 316 | 5.0 | 8.0 | 0.00 | 0.00 | 0.00 | 100 | 953.4 |
| 20260507113655 | 62 | 318 | 3.0 | 7.0 | 0.00 | 0.00 | 0.00 | 100 | 953.3 |
| 20260507113555 | 62 | 319 | 2.0 | 4.0 | 0.00 | 0.00 | 0.00 | 100 | 953.3 |
| 20260507113453 | 62 | 321 | 2.0 | 4.0 | 0.00 | 0.00 | 0.00 | 100 | 953.3 |
| 20260507113249 | 62 | 344 | 2.0 | 4.0 | 0.00 | 0.00 | 0.00 | 100 | 953.4 |
| 20260507113046 | 62 | 21 | 2.0 | 4.0 | 0.00 | 0.00 | 0.00 | 100 | 953.3 |
| 20260507112945 | 62 | 81 | 2.0 | 5.0 | 0.00 | 0.00 | 0.00 | 100 | 953.4 |
| 20260507112843 | 62 | 107 | 3.0 | 6.0 | 0.00 | 0.00 | 0.00 | 100 | 953.2 |
| 20260507112640 | 62 | 130 | 3.0 | 6.0 | 0.00 | 0.00 | 0.00 | 100 | 953.4 |
| 20260507112437 | 62 | 128 | 3.0 | 8.0 | 0.00 | 0.00 | 0.00 | 100 | 953.3 |
| 20260507112336 | 62 | 116 | 3.0 | 8.0 | 0.00 | 0.00 | 0.00 | 100 | 953.2 |
| 20260507112233 | 62 | 90 | 3.0 | 8.0 | 0.00 | 0.00 | 0.00 | 100 | 953.3 |
| 20260507112030 | 63 | 342 | 2.0 | 6.0 | 0.00 | 0.00 | 0.00 | 100 | 953.3 |
| 20260507111828 | 64 | 290 | 1.0 | 6.0 | 0.00 | 0.00 | 0.00 | 100 | 953.2 |
| 20260507111727 | 64 | 0 | 1.0 | 5.0 | 0.00 | 0.00 | 0.00 | 100 | 953.3 |
| 20260507111625 | 64 | 0 | 1.0 | 5.0 | 0.00 | 0.00 | 0.00 | 100 | 953.3 |
| 20260507111421 | 64 | 218 | 2.0 | 6.0 | 0.00 | 0.00 | 0.00 | 100 | 953.2 |
| 20260507111218 | 63 | 275 | 3.0 | 7.0 | 0.00 | 0.00 | 0.00 | 100 | 953.2 |
| 20260507111117 | 63 | 279 | 3.0 | 7.0 | 0.00 | 0.00 | 0.00 | 100 | 953.3 |
| 20260507111015 | 63 | 285 | 4.0 | 7.0 | 0.00 | 0.00 | 0.00 | 100 | 953.2 |
| 20260507110811 | 63 | 299 | 3.0 | 6.0 | 0.00 | 0.00 | 0.00 | 100 | 953.2 |
| 20260507110557 | 62 | 320 | 3.0 | 6.0 | 0.00 | 0.00 | 0.00 | 100 | 953.0 |
| 20260507110456 | 62 | 307 | 4.0 | 7.0 | 0.00 | 0.00 | 0.00 | 100 | 953.0 |
| 20260507110354 | 62 | 295 | 4.0 | 7.0 | 0.00 | 0.00 | 0.00 | 100 | 953.1 |
| 20260507110150 | 62 | 289 | 5.0 | 8.0 | 0.00 | 0.00 | 0.00 | 100 | 953.1 |
| 20260507105947 | 62 | 289 | 5.0 | 8.0 | 0.00 | 0.00 | 0.00 | 100 | 953.1 |
| 20260507105847 | 62 | 299 | 4.0 | 8.0 | 0.00 | 0.00 | 0.00 | 100 | 953.1 |
| 20260507105745 | 62 | 302 | 4.0 | 7.0 | 0.00 | 0.00 | 0.00 | 100 | 953.1 |
| 20260507105541 | 62 | 317 | 6.0 | 11.0 | 0.00 | 0.00 | 0.00 | 100 | 953.1 |
| 20260507105338 | 62 | 314 | 5.0 | 11.0 | 0.00 | 0.00 | 0.00 | 100 | 953.1 |
| 20260507105238 | 62 | 309 | 4.0 | 11.0 | 0.00 | 0.00 | 0.00 | 100 | 953.1 |
| 20260507105136 | 62 | 300 | 3.0 | 10.0 | 0.00 | 0.00 | 0.00 | 100 | 953.0 |
| 20260507104933 | 62 | 288 | 4.0 | 8.0 | 0.00 | 0.00 | 0.00 | 100 | 953.2 |
| 20260507104729 | 62 | 288 | 4.0 | 8.0 | 0.00 | 0.00 | 0.00 | 100 | 953.1 |
| 20260507104629 | 62 | 288 | 4.0 | 8.0 | 0.00 | 0.00 | 0.00 | 100 | 953.1 |
| 20260507104523 | 62 | 262 | 4.0 | 16.0 | 0.00 | 0.00 | 0.00 | 100 | 953.1 |
| 20260507104320 | 63 | 254 | 4.0 | 16.0 | 0.00 | 0.00 | 0.00 | 100 | 953.1 |
| 20260507104117 | 63 | 264 | 3.0 | 12.0 | 0.00 | 0.00 | 0.00 | 100 | 953.1 |
| 20260507104016 | 63 | 265 | 3.0 | 9.0 | 0.00 | 0.00 | 0.00 | 100 | 953.1 |
| 20260507103913 | 62 | 281 | 4.0 | 10.0 | 0.00 | 0.00 | 0.00 | 100 | 953.1 |
| 20260507103710 | 62 | 285 | 5.0 | 10.0 | 0.00 | 0.00 | 0.00 | 100 | 953.0 |
| 20260507103507 | 62 | 299 | 4.0 | 8.0 | 0.00 | 0.00 | 0.00 | 100 | 953.0 |
| 20260507103406 | 62 | 301 | 4.0 | 7.0 | 0.00 | 0.00 | 0.00 | 100 | 952.9 |
| 20260507103304 | 62 | 295 | 5.0 | 8.0 | 0.00 | 0.00 | 0.00 | 100 | 953.1 |
| 20260507103100 | 62 | 288 | 6.0 | 12.0 | 0.00 | 0.00 | 0.00 | 100 | 952.9 |
| 20260507102857 | 62 | 290 | 7.0 | 12.0 | 0.00 | 0.00 | 0.00 | 100 | 952.9 |
| 20260507102757 | 62 | 286 | 7.0 | 12.0 | 0.00 | 0.00 | 0.00 | 100 | 952.9 |
| 20260507102655 | 62 | 285 | 8.0 | 11.0 | 0.00 | 0.00 | 0.00 | 100 | 952.9 |
| 20260507102451 | 63 | 282 | 6.0 | 11.0 | 0.00 | 0.00 | 0.00 | 100 | 952.9 |
| 20260507102249 | 64 | 266 | 3.0 | 11.0 | 0.00 | 0.00 | 0.00 | 100 | 952.9 |
| 20260507102148 | 65 | 0 | 2.0 | 4.0 | 0.00 | 0.00 | 0.00 | 100 | 952.8 |
| 20260507102046 | 65 | 0 | 1.0 | 4.0 | 0.00 | 0.00 | 0.00 | 100 | 953.0 |
| 20260507101843 | 65 | 0 | 1.0 | 4.0 | 0.00 | 0.00 | 0.00 | 100 | 952.8 |
| 20260507101640 | 65 | 0 | 1.0 | 4.0 | 0.00 | 0.00 | 0.00 | 100 | 952.8 |
| 20260507101539 | 65 | 0 | 1.0 | 3.0 | 0.00 | 0.00 | 0.00 | 100 | 952.8 |
| 20260507101437 | 65 | 0 | 1.0 | 3.0 | 0.00 | 0.00 | 0.00 | 100 | 952.8 |
| 20260507101235 | 64 | 279 | 2.0 | 6.0 | 0.00 | 0.00 | 0.00 | 100 | 952.7 |
| 20260507101031 | 63 | 284 | 4.0 | 7.0 | 0.00 | 0.00 | 0.00 | 100 | 952.7 |
| 20260507100931 | 63 | 285 | 5.0 | 8.0 | 0.00 | 0.00 | 0.00 | 100 | 952.8 |
| 20260507100828 | 63 | 287 | 6.0 | 8.0 | 0.00 | 0.00 | 0.00 | 100 | 952.8 |
| 20260507100625 | 64 | 286 | 4.0 | 8.0 | 0.00 | 0.00 | 0.00 | 100 | 952.7 |
| 20260507100422 | 64 | 258 | 2.0 | 7.0 | 0.00 | 0.00 | 0.00 | 100 | 952.7 |
| 20260507100321 | 64 | 235 | 2.0 | 8.0 | 0.00 | 0.00 | 0.00 | 100 | 952.7 |
| 20260507100219 | 64 | 237 | 2.0 | 9.0 | 0.00 | 0.00 | 0.00 | 100 | 952.8 |
| 20260507100016 | 64 | 243 | 3.0 | 10.0 | 0.00 | 0.00 | 0.00 | 100 | 952.7 |
| 20260507095813 | 64 | 234 | 3.0 | 10.0 | 0.00 | 0.00 | 0.00 | 100 | 952.8 |
| 20260507095712 | 64 | 228 | 2.0 | 10.0 | 0.00 | 0.00 | 0.00 | 100 | 952.8 |
| 20260507095610 | 64 | 235 | 2.0 | 10.0 | 0.00 | 0.00 | 0.00 | 100 | 952.7 |
| 20260507095406 | 64 | 259 | 3.0 | 12.0 | 0.00 | 0.00 | 0.00 | 100 | 952.8 |
| 20260507095203 | 64 | 264 | 5.0 | 12.0 | 0.00 | 0.00 | 0.00 | 100 | 952.6 |
| 20260507095103 | 64 | 262 | 6.0 | 12.0 | 0.00 | 0.00 | 0.00 | 100 | 952.6 |
| 20260507095000 | 64 | 257 | 4.0 | 11.0 | 0.00 | 0.00 | 0.00 | 100 | 952.7 |
| 20260507094757 | 65 | 241 | 2.0 | 10.0 | 0.00 | 0.00 | 0.00 | 100 | 952.6 |
| 20260507094554 | 66 | 230 | 1.0 | 10.0 | 0.00 | 0.00 | 0.00 | 100 | 952.6 |
| 20260507094454 | 66 | 235 | 1.0 | 4.0 | 0.00 | 0.00 | 0.00 | 100 | 952.8 |
| 20260507094348 | 66 | 240 | 1.0 | 4.0 | 0.00 | 0.00 | 0.00 | 100 | 952.7 |
| 20260507094144 | 66 | 259 | 2.0 | 8.0 | 0.00 | 0.00 | 0.00 | 100 | 952.7 |
| 20260507093942 | 65 | 261 | 2.0 | 9.0 | 0.00 | 0.00 | 0.00 | 100 | 952.6 |
| 20260507093841 | 65 | 253 | 3.0 | 10.0 | 0.00 | 0.00 | 0.00 | 100 | 952.6 |
| 20260507093739 | 65 | 242 | 3.0 | 10.0 | 0.00 | 0.00 | 0.00 | 100 | 952.7 |
| 20260507093536 | 65 | 231 | 2.0 | 10.0 | 0.00 | 0.00 | 0.00 | 100 | 952.6 |
| 20260507093333 | 65 | 230 | 2.0 | 8.0 | 0.00 | 0.00 | 0.00 | 100 | 952.7 |
| 20260507093232 | 65 | 223 | 2.0 | 8.0 | 0.00 | 0.00 | 0.00 | 100 | 952.7 |
| 20260507093131 | 65 | 234 | 2.0 | 8.0 | 0.00 | 0.00 | 0.00 | 100 | 952.6 |
| 20260507092926 | 65 | 251 | 2.0 | 8.0 | 0.00 | 0.00 | 0.00 | 100 | 952.6 |
| 20260507092723 | 64 | 268 | 4.0 | 8.0 | 0.00 | 0.00 | 0.00 | 100 | 952.6 |
| 20260507092622 | 64 | 268 | 4.0 | 8.0 | 0.00 | 0.00 | 0.00 | 100 | 952.6 |
| 20260507092519 | 63 | 261 | 3.0 | 8.0 | 0.00 | 0.00 | 0.00 | 100 | 952.6 |
| 20260507092317 | 64 | 238 | 2.0 | 8.0 | 0.00 | 0.00 | 0.00 | 100 | 952.6 |
| 20260507092114 | 64 | 253 | 3.0 | 12.0 | 0.00 | 0.00 | 0.00 | 100 | 952.6 |
| 20260507092013 | 63 | 256 | 3.0 | 12.0 | 0.00 | 0.00 | 0.00 | 100 | 952.6 |
| 20260507091911 | 64 | 254 | 3.0 | 12.0 | 0.00 | 0.00 | 0.00 | 100 | 952.5 |
| 20260507091708 | 63 | 248 | 4.0 | 13.0 | 0.00 | 0.00 | 0.00 | 100 | 952.6 |
| 20260507091505 | 63 | 256 | 4.0 | 13.0 | 0.00 | 0.00 | 0.00 | 100 | 952.6 |
| 20260507091405 | 63 | 257 | 3.0 | 9.0 | 0.00 | 0.00 | 0.00 | 100 | 952.7 |
| 20260507091302 | 63 | 258 | 3.0 | 7.0 | 0.00 | 0.00 | 0.00 | 100 | 952.6 |
| 20260507091100 | 63 | 226 | 2.0 | 5.0 | 0.00 | 0.00 | 0.00 | 100 | 952.6 |
| 20260507090857 | 63 | 252 | 2.0 | 10.0 | 0.00 | 0.00 | 0.00 | 100 | 952.6 |
| 20260507090756 | 63 | 245 | 2.0 | 10.0 | 0.00 | 0.00 | 0.00 | 100 | 952.5 |
| 20260507090655 | 63 | 237 | 3.0 | 10.0 | 0.00 | 0.00 | 0.00 | 100 | 952.6 |
| 20260507090451 | 63 | 220 | 2.0 | 9.0 | 0.00 | 0.00 | 0.00 | 100 | 952.5 |
| 20260507090248 | 63 | 227 | 2.0 | 9.0 | 0.00 | 0.00 | 0.00 | 100 | 952.6 |
| 20260507090148 | 63 | 237 | 1.0 | 9.0 | 0.00 | 0.00 | 0.00 | 100 | 952.5 |
| 20260507090045 | 64 | 0 | 1.0 | 7.0 | 0.00 | 0.00 | 0.00 | 100 | 952.5 |
| 20260507085842 | 64 | 0 | 2.0 | 7.0 | 0.00 | 0.00 | 0.00 | 100 | 952.5 |
| 20260507085639 | 63 | 218 | 2.0 | 6.0 | 0.00 | 0.00 | 0.00 | 100 | 952.5 |
| 20260507085539 | 63 | 233 | 2.0 | 6.0 | 0.00 | 0.00 | 0.00 | 100 | 952.4 |
| 20260507085436 | 63 | 241 | 2.0 | 6.0 | 0.00 | 0.00 | 0.00 | 100 | 952.4 |
| 20260507085233 | 63 | 253 | 2.0 | 8.0 | 0.00 | 0.00 | 0.00 | 100 | 952.3 |
| 20260507085030 | 63 | 0 | 2.0 | 8.0 | 0.00 | 0.00 | 0.00 | 100 | 952.3 |
| 20260507084929 | 63 | 236 | 2.0 | 7.0 | 0.00 | 0.00 | 0.00 | 100 | 952.4 |
| 20260507084827 | 63 | 239 | 2.0 | 8.0 | 0.00 | 0.00 | 0.00 | 100 | 952.3 |
| 20260507084624 | 63 | 227 | 2.0 | 8.0 | 0.00 | 0.00 | 0.00 | 100 | 952.4 |
| 20260507084421 | 63 | 216 | 2.0 | 8.0 | 0.00 | 0.00 | 0.00 | 100 | 952.3 |
| 20260507084320 | 63 | 214 | 1.0 | 8.0 | 0.00 | 0.00 | 0.00 | 100 | 952.3 |
| 20260507084215 | 64 | 0 | 1.0 | 8.0 | 0.00 | 0.00 | 0.00 | 100 | 952.5 |
| 20260507084012 | 64 | 0 | 2.0 | 9.0 | 0.00 | 0.00 | 0.00 | 100 | 952.3 |
| 20260507083808 | 64 | 240 | 2.0 | 9.0 | 0.00 | 0.00 | 0.00 | 100 | 952.4 |
| 20260507083707 | 64 | 233 | 2.0 | 9.0 | 0.00 | 0.00 | 0.00 | 100 | 952.3 |
| 20260507083605 | 64 | 222 | 2.0 | 7.0 | 0.00 | 0.00 | 0.00 | 100 | 952.3 |
| 20260507083402 | 64 | 215 | 2.0 | 8.0 | 0.00 | 0.00 | 0.00 | 100 | 952.3 |
| 20260507083159 | 64 | 222 | 2.0 | 8.0 | 0.00 | 0.00 | 0.00 | 100 | 952.2 |
| 20260507083059 | 64 | 231 | 2.0 | 8.0 | 0.00 | 0.00 | 0.00 | 100 | 952.2 |
| 20260507082956 | 63 | 0 | 2.0 | 8.0 | 0.00 | 0.00 | 0.00 | 100 | 952.1 |
| 20260507082753 | 63 | 225 | 2.0 | 8.0 | 0.00 | 0.00 | 0.00 | 100 | 952.2 |
| 20260507082540 | 63 | 221 | 2.0 | 11.0 | 0.00 | 0.00 | 0.00 | 100 | 952.0 |
| 20260507082439 | 63 | 226 | 2.0 | 11.0 | 0.00 | 0.00 | 0.00 | 100 | 952.1 |
| 20260507082337 | 63 | 220 | 2.0 | 11.0 | 0.00 | 0.00 | 0.00 | 100 | 952.2 |
| 20260507082134 | 63 | 217 | 2.0 | 10.0 | 0.00 | 0.00 | 0.00 | 100 | 952.1 |
| 20260507081931 | 63 | 237 | 3.0 | 12.0 | 0.00 | 0.00 | 0.00 | 100 | 952.0 |
| 20260507081831 | 63 | 246 | 3.0 | 14.0 | 0.00 | 0.00 | 0.00 | 100 | 952.1 |
| 20260507081729 | 62 | 255 | 3.0 | 14.0 | 0.00 | 0.00 | 0.00 | 100 | 952.1 |
| 20260507081525 | 63 | 246 | 2.0 | 14.0 | 0.00 | 0.00 | 0.00 | 100 | 952.0 |
| 20260507081323 | 63 | 0 | 1.0 | 6.0 | 0.00 | 0.00 | 0.00 | 100 | 952.0 |
| 20260507081222 | 63 | 232 | 2.0 | 7.0 | 0.00 | 0.00 | 0.00 | 100 | 952.0 |
| 20260507081119 | 62 | 252 | 2.0 | 9.0 | 0.00 | 0.00 | 0.00 | 100 | 952.0 |
| 20260507080916 | 62 | 248 | 2.0 | 9.0 | 0.00 | 0.00 | 0.00 | 100 | 951.9 |
| 20260507080713 | 62 | 235 | 2.0 | 9.0 | 0.00 | 0.00 | 0.00 | 100 | 951.9 |
| 20260507080612 | 62 | 238 | 2.0 | 8.0 | 0.00 | 0.00 | 0.00 | 100 | 951.9 |
| 20260507080510 | 62 | 223 | 2.0 | 9.0 | 0.00 | 0.00 | 0.00 | 100 | 951.9 |
| 20260507080307 | 62 | 223 | 2.0 | 9.0 | 0.00 | 0.00 | 0.00 | 100 | 951.9 |
| 20260507080103 | 62 | 240 | 2.0 | 10.0 | 0.00 | 0.00 | 0.00 | 100 | 951.9 |
| 20260507080034 | 62 | 232 | 2.0 | 10.0 | 0.00 | 0.00 | 0.00 | 100 | 951.8 |
| 20260507080003 | 62 | 232 | 2.0 | 10.0 | 0.00 | 0.00 | 0.00 | 100 | 951.8 |
| 20260507075900 | 62 | 229 | 2.0 | 10.0 | 0.00 | 0.00 | 0.00 | 100 | 951.7 |
| 20260507075657 | 63 | 223 | 2.0 | 10.0 | 0.00 | 0.00 | 0.00 | 100 | 951.8 |
| 20260507075453 | 62 | 219 | 2.0 | 10.0 | 0.00 | 0.00 | 0.00 | 100 | 951.8 |
| 20260507075352 | 62 | 217 | 2.0 | 10.0 | 0.00 | 0.00 | 0.00 | 100 | 951.8 |
| 20260507075249 | 62 | 221 | 2.0 | 10.0 | 0.00 | 0.00 | 0.00 | 100 | 951.9 |
| 20260507075047 | 62 | 223 | 2.0 | 10.0 | 0.00 | 0.00 | 0.00 | 100 | 951.8 |
| 20260507074844 | 62 | 247 | 2.0 | 8.0 | 0.00 | 0.00 | 0.00 | 100 | 951.9 |
| 20260507074743 | 62 | 0 | 2.0 | 8.0 | 0.00 | 0.00 | 0.00 | 100 | 951.9 |
| 20260507074641 | 62 | 241 | 2.0 | 10.0 | 0.00 | 0.00 | 0.00 | 100 | 951.9 |
| 20260507074438 | 62 | 216 | 2.0 | 10.0 | 0.00 | 0.00 | 0.00 | 100 | 951.8 |
| 20260507074234 | 62 | 206 | 3.0 | 14.0 | 0.00 | 0.00 | 0.00 | 100 | 951.8 |
| 20260507074134 | 62 | 215 | 3.0 | 14.0 | 0.00 | 0.00 | 0.00 | 100 | 951.8 |
| 20260507074028 | 62 | 217 | 3.0 | 14.0 | 0.00 | 0.00 | 0.00 | 100 | 951.8 |
| 20260507073825 | 62 | 228 | 3.0 | 7.0 | 0.00 | 0.00 | 0.00 | 100 | 951.6 |
| 20260507073622 | 62 | 225 | 2.0 | 8.0 | 0.00 | 0.00 | 0.00 | 100 | 951.6 |
| 20260507073521 | 62 | 0 | 2.0 | 8.0 | 0.00 | 0.00 | 0.00 | 100 | 951.8 |
| 20260507073419 | 62 | 0 | 2.0 | 8.0 | 0.00 | 0.00 | 0.00 | 100 | 951.8 |
| 20260507073215 | 62 | 0 | 2.0 | 8.0 | 0.00 | 0.00 | 0.00 | 100 | 951.6 |
| 20260507073012 | 61 | 0 | 2.0 | 7.0 | 0.00 | 0.00 | 0.00 | 100 | 951.7 |
| 20260507072911 | 61 | 0 | 2.0 | 10.0 | 0.00 | 0.00 | 0.00 | 100 | 951.6 |
| 20260507072809 | 61 | 236 | 3.0 | 16.0 | 0.00 | 0.00 | 0.00 | 100 | 951.6 |
| 20260507072606 | 61 | 230 | 3.0 | 16.0 | 0.00 | 0.00 | 0.00 | 100 | 951.6 |
| 20260507072403 | 61 | 226 | 3.0 | 13.0 | 0.00 | 0.00 | 0.00 | 100 | 951.6 |
| 20260507072306 | 61 | 223 | 3.0 | 13.0 | 0.00 | 0.00 | 0.00 | 100 | 951.5 |
| 20260507072200 | 61 | 218 | 3.0 | 13.0 | 0.00 | 0.00 | 0.00 | 100 | 951.6 |
| 20260507072003 | 61 | 235 | 2.0 | 13.0 | 0.00 | 0.00 | 0.00 | 100 | 951.5 |
| 20260507071753 | 61 | 243 | 2.0 | 7.0 | 0.00 | 0.00 | 0.00 | 100 | 951.4 |
| 20260507071652 | 61 | 231 | 2.0 | 7.0 | 0.00 | 0.00 | 0.00 | 100 | 951.5 |
| 20260507071606 | 61 | 229 | 2.0 | 9.0 | 0.00 | 0.00 | 0.00 | 100 | 951.5 |
| 20260507071347 | 61 | 238 | 3.0 | 19.0 | 0.00 | 0.00 | 0.00 | 100 | 951.5 |
| 20260507071144 | 61 | 234 | 3.0 | 19.0 | 0.00 | 0.00 | 0.00 | 100 | 951.5 |
| 20260507071043 | 61 | 236 | 3.0 | 19.0 | 0.00 | 0.00 | 0.00 | 100 | 951.2 |
| 20260507070940 | 62 | 236 | 2.0 | 8.0 | 0.00 | 0.00 | 0.00 | 100 | 951.4 |
| 20260507070738 | 61 | 234 | 2.0 | 11.0 | 0.00 | 0.00 | 0.00 | 100 | 951.3 |
| 20260507070534 | 61 | 269 | 4.0 | 15.0 | 0.00 | 0.00 | 0.00 | 100 | 951.4 |
| 20260507070434 | 61 | 269 | 5.0 | 15.0 | 0.00 | 0.00 | 0.00 | 100 | 951.3 |
| 20260507070331 | 61 | 269 | 4.0 | 15.0 | 0.00 | 0.00 | 0.00 | 100 | 951.3 |
| 20260507070129 | 61 | 242 | 2.0 | 10.0 | 0.00 | 0.00 | 0.00 | 100 | 951.3 |
| 20260507065925 | 61 | 233 | 2.0 | 11.0 | 0.00 | 0.00 | 0.00 | 100 | 951.3 |
| 20260507065825 | 61 | 227 | 3.0 | 11.0 | 0.00 | 0.00 | 0.00 | 100 | 951.2 |
| 20260507065722 | 61 | 227 | 3.0 | 11.0 | 0.00 | 0.00 | 0.00 | 100 | 951.3 |
| 20260507065519 | 61 | 220 | 3.0 | 17.0 | 0.00 | 0.00 | 0.00 | 100 | 951.2 |
| 20260507065315 | 61 | 234 | 3.0 | 17.0 | 0.00 | 0.00 | 0.00 | 100 | 951.2 |
| 20260507065215 | 61 | 248 | 4.0 | 14.0 | 0.00 | 0.00 | 0.00 | 100 | 951.2 |
| 20260507065113 | 61 | 258 | 5.0 | 13.0 | 0.00 | 0.00 | 0.00 | 100 | 951.2 |
| 20260507064909 | 61 | 271 | 5.0 | 16.0 | 0.00 | 0.00 | 0.00 | 100 | 951.1 |
| 20260507064706 | 62 | 260 | 2.0 | 12.0 | 0.00 | 0.00 | 0.00 | 100 | 951.1 |
| 20260507064605 | 62 | 223 | 2.0 | 6.0 | 0.00 | 0.00 | 0.00 | 100 | 951.1 |
| 20260507064503 | 62 | 217 | 2.0 | 7.0 | 0.00 | 0.00 | 0.00 | 100 | 951.2 |
| 20260507064300 | 62 | 220 | 2.0 | 10.0 | 0.00 | 0.00 | 0.00 | 100 | 951.2 |
| 20260507064056 | 62 | 222 | 2.0 | 10.0 | 0.00 | 0.00 | 0.00 | 100 | 951.2 |
| 20260507063955 | 62 | 220 | 2.0 | 10.0 | 0.00 | 0.00 | 0.00 | 100 | 951.2 |
| 20260507063850 | 62 | 234 | 2.0 | 9.0 | 0.00 | 0.00 | 0.00 | 100 | 951.1 |
| 20260507063647 | 62 | 253 | 2.0 | 10.0 | 0.00 | 0.00 | 0.00 | 100 | 951.3 |
| 20260507063443 | 62 | 247 | 2.0 | 13.0 | 0.00 | 0.00 | 0.00 | 100 | 951.2 |
| 20260507063342 | 62 | 249 | 2.0 | 13.0 | 0.00 | 0.00 | 0.00 | 100 | 951.2 |
| 20260507063240 | 61 | 254 | 2.0 | 13.0 | 0.00 | 0.00 | 0.00 | 100 | 951.2 |
| 20260507063037 | 61 | 260 | 3.0 | 18.0 | 0.00 | 0.00 | 0.00 | 100 | 951.1 |
| 20260507062841 | 61 | 248 | 4.0 | 18.0 | 0.00 | 0.00 | 0.00 | 100 | 951.2 |
| 20260507062732 | 61 | 243 | 4.0 | 18.0 | 0.00 | 0.00 | 0.00 | 100 | 951.0 |
| 20260507062630 | 61 | 240 | 4.0 | 18.0 | 0.00 | 0.00 | 0.00 | 100 | 951.0 |
| 20260507062426 | 61 | 224 | 3.0 | 13.0 | 0.00 | 0.00 | 0.00 | 100 | 951.1 |
| 20260507062223 | 61 | 222 | 3.0 | 13.0 | 0.00 | 0.00 | 0.00 | 100 | 951.1 |
| 20260507062123 | 60 | 225 | 2.0 | 12.0 | 0.00 | 0.00 | 0.00 | 100 | 951.1 |
| 20260507062020 | 60 | 237 | 2.0 | 17.0 | 0.00 | 0.00 | 0.00 | 100 | 951.1 |
| 20260507061817 | 60 | 240 | 4.0 | 17.0 | 0.00 | 0.00 | 0.00 | 100 | 951.1 |
| 20260507061613 | 60 | 238 | 5.0 | 17.0 | 0.00 | 0.00 | 0.00 | 100 | 950.9 |
| 20260507061513 | 60 | 244 | 6.0 | 20.0 | 0.00 | 0.00 | 0.00 | 100 | 950.9 |
| 20260507061410 | 60 | 241 | 5.0 | 20.0 | 0.00 | 0.00 | 0.00 | 100 | 951.0 |
| 20260507061207 | 60 | 249 | 5.0 | 20.0 | 0.00 | 0.00 | 0.00 | 100 | 950.8 |
| 20260507061004 | 60 | 247 | 3.0 | 12.0 | 0.00 | 0.00 | 0.00 | 100 | 950.9 |
| 20260507060904 | 60 | 242 | 3.0 | 14.0 | 0.00 | 0.00 | 0.00 | 100 | 951.0 |
| 20260507060801 | 60 | 242 | 3.0 | 14.0 | 0.00 | 0.00 | 0.00 | 100 | 950.9 |
| 20260507060557 | 60 | 240 | 4.0 | 14.0 | 0.00 | 0.00 | 0.00 | 100 | 950.9 |
| 20260507060354 | 60 | 218 | 2.0 | 9.0 | 0.00 | 0.00 | 0.00 | 100 | 950.9 |
| 20260507060253 | 60 | 214 | 2.0 | 9.0 | 0.00 | 0.00 | 0.00 | 100 | 950.8 |
| 20260507060150 | 60 | 215 | 3.0 | 12.0 | 0.00 | 0.00 | 0.00 | 100 | 950.8 |
| 20260507055958 | 60 | 237 | 4.0 | 14.0 | 0.00 | 0.00 | 0.00 | 100 | 950.7 |
| 20260507055744 | 60 | 239 | 3.0 | 10.0 | 0.00 | 0.00 | 0.00 | 100 | 950.7 |
| 20260507055643 | 60 | 234 | 2.0 | 10.0 | 0.00 | 0.00 | 0.00 | 100 | 950.7 |
| 20260507055541 | 60 | 238 | 2.0 | 9.0 | 0.00 | 0.00 | 0.00 | 100 | 950.6 |
| 20260507055338 | 59 | 251 | 3.0 | 16.0 | 0.00 | 0.00 | 0.00 | 100 | 950.6 |
| 20260507055134 | 59 | 255 | 3.0 | 16.0 | 0.00 | 0.00 | 0.00 | 100 | 950.6 |
| 20260507055033 | 59 | 262 | 2.0 | 16.0 | 0.00 | 0.00 | 0.00 | 100 | 950.6 |
| 20260507054931 | 59 | 243 | 2.0 | 15.0 | 0.00 | 0.00 | 0.00 | 100 | 950.6 |
| 20260507054715 | 59 | 237 | 2.0 | 15.0 | 0.00 | 0.00 | 0.00 | 100 | 950.5 |
| 20260507054511 | 59 | 235 | 2.0 | 10.0 | 0.00 | 0.00 | 0.00 | 100 | 950.4 |
| 20260507054410 | 59 | 238 | 2.0 | 10.0 | 0.00 | 0.00 | 0.00 | 100 | 950.5 |
| 20260507054307 | 59 | 229 | 2.0 | 10.0 | 0.00 | 0.00 | 0.00 | 100 | 950.4 |
| 20260507054104 | 59 | 216 | 2.0 | 10.0 | 0.00 | 0.00 | 0.00 | 100 | 950.4 |
| 20260507053902 | 59 | 212 | 2.0 | 10.0 | 0.00 | 0.00 | 0.00 | 100 | 950.4 |
| 20260507053801 | 59 | 218 | 2.0 | 10.0 | 0.00 | 0.00 | 0.00 | 100 | 950.3 |
| 20260507053655 | 59 | 223 | 2.0 | 11.0 | 0.00 | 0.00 | 0.00 | 100 | 950.3 |
| 20260507053452 | 59 | 218 | 2.0 | 12.0 | 0.00 | 0.00 | 0.00 | 100 | 950.4 |
| 20260507053249 | 59 | 221 | 3.0 | 12.0 | 0.00 | 0.00 | 0.00 | 100 | 950.3 |
| 20260507053148 | 59 | 216 | 2.0 | 10.0 | 0.00 | 0.00 | 0.00 | 100 | 950.4 |
| 20260507053046 | 59 | 214 | 2.0 | 10.0 | 0.00 | 0.00 | 0.00 | 100 | 950.4 |
| 20260507052843 | 59 | 199 | 3.0 | 10.0 | 0.00 | 0.00 | 0.00 | 100 | 950.3 |
| 20260507052640 | 59 | 213 | 2.0 | 10.0 | 0.00 | 0.00 | 0.00 | 100 | 950.3 |
| 20260507052539 | 59 | 216 | 2.0 | 10.0 | 0.00 | 0.00 | 0.00 | 100 | 950.5 |
| 20260507052437 | 59 | 212 | 2.0 | 10.0 | 0.00 | 0.00 | 0.00 | 100 | 950.5 |
| 20260507052234 | 59 | 217 | 2.0 | 10.0 | 0.00 | 0.00 | 0.00 | 100 | 950.4 |
| 20260507052031 | 59 | 230 | 2.0 | 14.0 | 0.00 | 0.00 | 0.00 | 100 | 950.4 |
| 20260507051931 | 59 | 224 | 2.0 | 14.0 | 0.00 | 0.00 | 0.00 | 100 | 950.5 |
| 20260507051828 | 59 | 231 | 2.0 | 14.0 | 0.00 | 0.00 | 0.00 | 100 | 950.5 |
| 20260507051624 | 59 | 225 | 2.0 | 13.0 | 0.00 | 0.00 | 0.00 | 100 | 950.3 |
| 20260507051421 | 59 | 221 | 2.0 | 11.0 | 0.00 | 0.00 | 0.00 | 100 | 950.4 |
| 20260507051321 | 59 | 221 | 3.0 | 11.0 | 0.00 | 0.00 | 0.00 | 100 | 950.4 |
| 20260507051219 | 59 | 215 | 3.0 | 11.0 | 0.00 | 0.00 | 0.00 | 100 | 950.3 |
| 20260507051016 | 59 | 217 | 2.0 | 11.0 | 0.00 | 0.00 | 0.00 | 100 | 950.3 |
| 20260507050813 | 59 | 218 | 2.0 | 8.0 | 0.00 | 0.00 | 0.00 | 100 | 950.3 |
| 20260507050712 | 59 | 231 | 2.0 | 9.0 | 0.00 | 0.00 | 0.00 | 100 | 950.1 |
| 20260507050610 | 59 | 231 | 2.0 | 9.0 | 0.00 | 0.00 | 0.00 | 100 | 950.2 |
| 20260507050406 | 59 | 229 | 2.0 | 8.0 | 0.00 | 0.00 | 0.00 | 100 | 950.2 |
| 20260507050203 | 58 | 219 | 2.0 | 12.0 | 0.00 | 0.00 | 0.00 | 100 | 950.1 |
| 20260507045959 | 58 | 222 | 2.0 | 12.0 | 0.00 | 0.00 | 0.00 | 100 | 950.1 |
| 20260507045756 | 58 | 234 | 2.0 | 8.0 | 0.00 | 0.00 | 0.00 | 100 | 950.2 |
| 20260507045553 | 58 | 0 | 2.0 | 8.0 | 0.00 | 0.00 | 0.00 | 100 | 950.3 |
| 20260507045452 | 58 | 0 | 2.0 | 8.0 | 0.00 | 0.00 | 0.00 | 100 | 950.1 |
| 20260507045349 | 58 | 0 | 2.0 | 9.0 | 0.00 | 0.00 | 0.00 | 100 | 950.2 |
| 20260507045146 | 58 | 0 | 2.0 | 9.0 | 0.00 | 0.00 | 0.00 | 100 | 950.1 |
| 20260507044943 | 58 | 0 | 2.0 | 9.0 | 0.00 | 0.00 | 0.00 | 100 | 950.1 |
| 20260507044842 | 58 | 0 | 2.0 | 9.0 | 0.00 | 0.00 | 0.00 | 100 | 950.0 |
| 20260507044740 | 58 | 0 | 2.0 | 11.0 | 0.00 | 0.00 | 0.00 | 100 | 950.1 |
| 20260507044537 | 58 | 238 | 2.0 | 11.0 | 0.00 | 0.00 | 0.00 | 100 | 950.2 |
| 20260507044341 | 58 | 243 | 2.0 | 8.0 | 0.00 | 0.00 | 0.00 | 100 | 950.2 |
| 20260507044233 | 58 | 0 | 2.0 | 7.0 | 0.00 | 0.00 | 0.00 | 100 | 950.3 |
| 20260507044131 | 58 | 226 | 2.0 | 8.0 | 0.00 | 0.00 | 0.00 | 100 | 950.3 |
| 20260507043932 | 58 | 222 | 2.0 | 8.0 | 0.00 | 0.00 | 0.00 | 100 | 950.2 |
| 20260507043725 | 58 | 228 | 2.0 | 10.0 | 0.00 | 0.00 | 0.00 | 100 | 950.2 |
| 20260507043624 | 58 | 236 | 2.0 | 10.0 | 0.00 | 0.00 | 0.00 | 100 | 950.3 |
| 20260507043518 | 58 | 237 | 2.0 | 10.0 | 0.00 | 0.00 | 0.00 | 100 | 950.2 |
| 20260507043315 | 58 | 233 | 2.0 | 8.0 | 0.00 | 0.00 | 0.00 | 100 | 950.2 |
| 20260507043112 | 58 | 221 | 2.0 | 8.0 | 0.00 | 0.00 | 0.00 | 100 | 950.3 |
| 20260507043011 | 58 | 228 | 2.0 | 6.0 | 0.00 | 0.00 | 0.00 | 100 | 950.2 |
| 20260507042909 | 58 | 0 | 2.0 | 6.0 | 0.00 | 0.00 | 0.00 | 100 | 950.3 |
| 20260507042706 | 58 | 234 | 2.0 | 9.0 | 0.00 | 0.00 | 0.00 | 100 | 950.2 |
| 20260507042503 | 58 | 238 | 2.0 | 10.0 | 0.00 | 0.00 | 0.00 | 100 | 950.3 |
| 20260507042402 | 58 | 248 | 2.0 | 10.0 | 0.00 | 0.00 | 0.00 | 100 | 950.2 |
| 20260507042300 | 58 | 248 | 2.0 | 10.0 | 0.00 | 0.00 | 0.00 | 100 | 950.1 |
| 20260507042057 | 58 | 240 | 2.0 | 9.0 | 0.00 | 0.00 | 0.00 | 100 | 950.1 |
| 20260507041853 | 58 | 237 | 2.0 | 8.0 | 0.00 | 0.00 | 0.00 | 100 | 950.1 |
| 20260507041752 | 58 | 226 | 2.0 | 8.0 | 0.00 | 0.00 | 0.00 | 100 | 950.1 |
| 20260507041650 | 57 | 230 | 2.0 | 7.0 | 0.00 | 0.00 | 0.00 | 100 | 950.1 |
| 20260507041447 | 57 | 0 | 2.0 | 8.0 | 0.00 | 0.00 | 0.00 | 100 | 950.0 |
| 20260507041244 | 57 | 0 | 2.0 | 8.0 | 0.00 | 0.00 | 0.00 | 100 | 950.0 |
| 20260507041143 | 57 | 0 | 2.0 | 8.0 | 0.00 | 0.00 | 0.00 | 100 | 950.1 |
| 20260507041040 | 57 | 0 | 2.0 | 7.0 | 0.00 | 0.00 | 0.00 | 100 | 950.1 |
| 20260507040837 | 57 | 0 | 2.0 | 7.0 | 0.00 | 0.00 | 0.00 | 100 | 950.0 |
| 20260507040634 | 57 | 232 | 2.0 | 7.0 | 0.00 | 0.00 | 0.00 | 100 | 950.0 |
| 20260507040533 | 57 | 235 | 2.0 | 7.0 | 0.00 | 0.00 | 0.00 | 100 | 950.0 |
| 20260507040431 | 57 | 235 | 2.0 | 8.0 | 0.00 | 0.00 | 0.00 | 100 | 950.0 |
| 20260507040227 | 57 | 225 | 2.0 | 8.0 | 0.00 | 0.00 | 0.00 | 100 | 949.9 |
| 20260507040025 | 57 | 213 | 2.0 | 10.0 | 0.00 | 0.00 | 0.00 | 100 | 949.9 |
| 20260507035924 | 57 | 215 | 2.0 | 10.0 | 0.00 | 0.00 | 0.00 | 100 | 949.9 |
| 20260507035825 | 57 | 217 | 2.0 | 10.0 | 0.00 | 0.00 | 0.00 | 100 | 949.9 |
| 20260507035618 | 57 | 221 | 2.0 | 16.0 | 0.00 | 0.00 | 0.00 | 100 | 949.7 |
| 20260507035415 | 57 | 238 | 3.0 | 16.0 | 0.00 | 0.00 | 0.00 | 100 | 949.7 |
| 20260507035315 | 57 | 243 | 3.0 | 16.0 | 0.00 | 0.00 | 0.00 | 100 | 949.6 |
| 20260507035212 | 57 | 245 | 3.0 | 14.0 | 0.00 | 0.00 | 0.00 | 100 | 949.8 |
| 20260507035009 | 57 | 242 | 2.0 | 12.0 | 0.00 | 0.00 | 0.00 | 100 | 949.7 |
| 20260507034806 | 57 | 225 | 1.0 | 7.0 | 0.00 | 0.00 | 0.00 | 100 | 949.7 |
| 20260507034705 | 57 | 0 | 1.0 | 5.0 | 0.00 | 0.00 | 0.00 | 100 | 949.7 |
| 20260507034603 | 57 | 0 | 1.0 | 6.0 | 0.00 | 0.00 | 0.00 | 100 | 949.7 |
| 20260507034359 | 57 | 0 | 2.0 | 11.0 | 0.00 | 0.00 | 0.00 | 100 | 949.6 |
| 20260507034156 | 57 | 226 | 2.0 | 11.0 | 0.00 | 0.00 | 0.00 | 100 | 949.4 |
| 20260507034055 | 57 | 226 | 2.0 | 11.0 | 0.00 | 0.00 | 0.00 | 100 | 949.3 |
| 20260507033952 | 57 | 221 | 2.0 | 10.0 | 0.00 | 0.00 | 0.00 | 100 | 949.4 |
| 20260507033750 | 57 | 215 | 2.0 | 11.0 | 0.00 | 0.00 | 0.00 | 100 | 949.2 |
| 20260507033547 | 57 | 216 | 2.0 | 9.0 | 0.00 | 0.00 | 0.00 | 100 | 949.4 |
| 20260507033446 | 57 | 0 | 2.0 | 7.0 | 0.00 | 0.00 | 0.00 | 100 | 949.2 |
| 20260507033343 | 57 | 0 | 2.0 | 13.0 | 0.00 | 0.00 | 0.00 | 100 | 949.3 |
| 20260507033136 | 57 | 220 | 2.0 | 13.0 | 0.00 | 0.00 | 0.00 | 100 | 949.2 |
| 20260507032933 | 57 | 217 | 3.0 | 14.0 | 0.00 | 0.00 | 0.00 | 100 | 949.2 |
| 20260507032833 | 57 | 209 | 3.0 | 14.0 | 0.00 | 0.00 | 0.00 | 100 | 949.1 |
| 20260507032730 | 57 | 201 | 3.0 | 14.0 | 0.00 | 0.00 | 0.00 | 100 | 949.2 |
| 20260507032527 | 57 | 192 | 4.0 | 15.0 | 0.00 | 0.00 | 0.00 | 100 | 949.2 |
| 20260507032324 | 57 | 196 | 2.0 | 15.0 | 0.00 | 0.00 | 0.00 | 100 | 949.3 |
| 20260507032223 | 57 | 212 | 2.0 | 8.0 | 0.00 | 0.00 | 0.00 | 100 | 949.4 |
| 20260507032121 | 57 | 208 | 2.0 | 8.0 | 0.00 | 0.00 | 0.00 | 100 | 949.4 |
| 20260507031927 | 57 | 207 | 2.0 | 6.0 | 0.00 | 0.00 | 0.00 | 100 | 949.4 |
| 20260507031719 | 57 | 206 | 1.0 | 5.0 | 0.00 | 0.00 | 0.00 | 100 | 949.5 |
| 20260507031615 | 57 | 208 | 2.0 | 8.0 | 0.00 | 0.00 | 0.00 | 100 | 949.4 |
| 20260507031513 | 57 | 211 | 2.0 | 8.0 | 0.00 | 0.00 | 0.00 | 100 | 949.4 |
| 20260507031309 | 57 | 209 | 2.0 | 8.0 | 0.00 | 0.00 | 0.00 | 100 | 949.5 |
| 20260507031106 | 57 | 210 | 2.0 | 10.0 | 0.00 | 0.00 | 0.00 | 100 | 949.5 |
| 20260507031005 | 57 | 213 | 2.0 | 10.0 | 0.00 | 0.00 | 0.00 | 100 | 949.5 |
| 20260507030917 | 57 | 216 | 2.0 | 10.0 | 0.00 | 0.00 | 0.00 | 100 | 949.5 |
| 20260507030649 | 57 | 223 | 2.0 | 8.0 | 0.00 | 0.00 | 0.00 | 100 | 949.4 |
| 20260507030445 | 57 | 222 | 2.0 | 8.0 | 0.00 | 0.00 | 0.00 | 100 | 949.5 |
| 20260507030345 | 57 | 221 | 2.0 | 7.0 | 0.00 | 0.00 | 0.00 | 100 | 949.5 |
| 20260507030242 | 57 | 226 | 2.0 | 7.0 | 0.00 | 0.00 | 0.00 | 100 | 949.5 |
| 20260507030043 | 57 | 0 | 1.0 | 7.0 | 0.00 | 0.00 | 0.00 | 100 | 949.5 |
| 20260507025836 | 57 | 195 | 2.0 | 8.0 | 0.00 | 0.00 | 0.00 | 100 | 949.5 |
| 20260507025735 | 57 | 202 | 2.0 | 13.0 | 0.00 | 0.00 | 0.00 | 100 | 949.5 |
| 20260507025632 | 57 | 207 | 2.0 | 13.0 | 0.00 | 0.00 | 0.00 | 100 | 949.6 |
| 20260507025429 | 57 | 204 | 2.0 | 13.0 | 0.00 | 0.00 | 0.00 | 100 | 949.5 |
| 20260507025226 | 57 | 232 | 1.0 | 5.0 | 0.00 | 0.00 | 0.00 | 100 | 949.5 |
| 20260507025125 | 57 | 0 | 1.0 | 6.0 | 0.00 | 0.00 | 0.00 | 100 | 949.5 |
| 20260507025023 | 57 | 0 | 2.0 | 6.0 | 0.00 | 0.00 | 0.00 | 100 | 949.6 |
| 20260507024820 | 57 | 211 | 2.0 | 10.0 | 0.00 | 0.00 | 0.00 | 100 | 949.6 |
| 20260507024618 | 57 | 210 | 3.0 | 12.0 | 0.00 | 0.00 | 0.00 | 100 | 949.6 |
| 20260507024517 | 57 | 209 | 3.0 | 13.0 | 0.00 | 0.00 | 0.00 | 100 | 949.6 |
| 20260507024415 | 57 | 206 | 2.0 | 13.0 | 0.00 | 0.00 | 0.00 | 100 | 949.5 |
| 20260507024212 | 57 | 203 | 2.0 | 9.0 | 0.00 | 0.00 | 0.00 | 100 | 949.6 |
| 20260507024009 | 57 | 199 | 2.0 | 9.0 | 0.00 | 0.00 | 0.00 | 100 | 949.6 |
| 20260507023908 | 57 | 204 | 2.0 | 7.0 | 0.00 | 0.00 | 0.00 | 100 | 949.5 |
| 20260507023806 | 57 | 200 | 2.0 | 7.0 | 0.00 | 0.00 | 0.00 | 100 | 949.6 |
| 20260507023602 | 57 | 201 | 2.0 | 6.0 | 0.00 | 0.00 | 0.00 | 100 | 949.5 |
| 20260507023359 | 57 | 200 | 2.0 | 6.0 | 0.00 | 0.00 | 0.00 | 100 | 949.6 |
| 20260507023303 | 57 | 195 | 2.0 | 8.0 | 0.00 | 0.00 | 0.00 | 100 | 949.6 |
| 20260507023154 | 57 | 199 | 2.0 | 8.0 | 0.00 | 0.00 | 0.00 | 100 | 949.6 |
| 20260507022954 | 58 | 223 | 2.0 | 8.0 | 0.00 | 0.00 | 0.00 | 100 | 949.6 |
| 20260507022748 | 58 | 207 | 3.0 | 14.0 | 0.00 | 0.00 | 0.00 | 100 | 949.7 |
| 20260507022647 | 58 | 197 | 3.0 | 14.0 | 0.00 | 0.00 | 0.00 | 100 | 949.6 |
| 20260507022545 | 58 | 191 | 3.0 | 14.0 | 0.00 | 0.00 | 0.00 | 100 | 949.5 |
| 20260507022341 | 58 | 236 | 2.0 | 7.0 | 0.00 | 0.00 | 0.00 | 100 | 949.6 |
| 20260507022138 | 58 | 213 | 3.0 | 12.0 | 0.00 | 0.00 | 0.00 | 100 | 949.6 |
| 20260507022037 | 58 | 208 | 3.0 | 12.0 | 0.00 | 0.00 | 0.00 | 100 | 949.7 |
| 20260507021935 | 58 | 195 | 3.0 | 12.0 | 0.00 | 0.00 | 0.00 | 100 | 949.4 |
| 20260507021732 | 58 | 191 | 2.0 | 12.0 | 0.00 | 0.00 | 0.00 | 100 | 949.6 |
| 20260507021528 | 58 | 180 | 3.0 | 12.0 | 0.00 | 0.00 | 0.00 | 100 | 949.6 |
| 20260507021427 | 58 | 181 | 3.0 | 12.0 | 0.00 | 0.00 | 0.00 | 100 | 949.5 |
| 20260507021325 | 58 | 182 | 3.0 | 12.0 | 0.00 | 0.00 | 0.00 | 100 | 949.5 |
| 20260507021122 | 58 | 187 | 2.0 | 9.0 | 0.00 | 0.00 | 0.00 | 100 | 949.6 |
| 20260507020918 | 58 | 0 | 2.0 | 6.0 | 0.00 | 0.00 | 0.00 | 100 | 949.6 |
| 20260507020817 | 58 | 239 | 2.0 | 8.0 | 0.00 | 0.00 | 0.00 | 100 | 949.7 |
| 20260507020715 | 58 | 235 | 2.0 | 8.0 | 0.00 | 0.00 | 0.00 | 100 | 949.6 |
| 20260507020512 | 58 | 214 | 2.0 | 8.0 | 0.00 | 0.00 | 0.00 | 100 | 949.6 |
| 20260507020308 | 58 | 219 | 2.0 | 12.0 | 0.00 | 0.00 | 0.00 | 100 | 949.6 |
| 20260507020207 | 58 | 197 | 3.0 | 12.0 | 0.00 | 0.00 | 0.00 | 100 | 949.6 |
| 20260507020105 | 58 | 201 | 4.0 | 12.0 | 0.00 | 0.00 | 0.00 | 100 | 949.4 |
| 20260507015902 | 58 | 192 | 4.0 | 12.0 | 0.00 | 0.00 | 0.00 | 100 | 949.5 |
| 20260507015659 | 58 | 182 | 4.0 | 17.0 | 0.00 | 0.00 | 0.00 | 100 | 949.3 |
| 20260507015558 | 58 | 182 | 4.0 | 17.0 | 0.00 | 0.00 | 0.00 | 100 | 949.5 |
| 20260507015456 | 58 | 184 | 5.0 | 17.0 | 0.00 | 0.00 | 0.00 | 100 | 949.2 |
| 20260507015252 | 58 | 204 | 3.0 | 13.0 | 0.00 | 0.00 | 0.00 | 100 | 949.3 |
| 20260507015049 | 58 | 206 | 3.0 | 12.0 | 0.00 | 0.00 | 0.00 | 100 | 949.6 |
| 20260507014949 | 58 | 196 | 4.0 | 13.0 | 0.00 | 0.00 | 0.00 | 100 | 949.7 |
| 20260507014847 | 58 | 190 | 4.0 | 13.0 | 0.00 | 0.00 | 0.00 | 100 | 949.7 |
| 20260507014643 | 58 | 184 | 5.0 | 20.0 | 0.00 | 0.00 | 0.00 | 100 | 949.6 |
| 20260507014439 | 58 | 181 | 4.0 | 20.0 | 0.00 | 0.00 | 0.00 | 100 | 949.5 |
| 20260507014338 | 58 | 176 | 4.0 | 20.0 | 0.00 | 0.00 | 0.00 | 100 | 949.5 |
| 20260507014236 | 58 | 185 | 3.0 | 13.0 | 0.00 | 0.00 | 0.00 | 100 | 949.6 |
| 20260507014036 | 58 | 199 | 4.0 | 13.0 | 0.00 | 0.00 | 0.00 | 100 | 949.7 |
| 20260507013829 | 58 | 210 | 3.0 | 13.0 | 0.00 | 0.00 | 0.00 | 100 | 949.7 |
| 20260507013728 | 58 | 194 | 2.0 | 9.0 | 0.00 | 0.00 | 0.00 | 100 | 949.7 |
| 20260507013625 | 58 | 191 | 3.0 | 8.0 | 0.00 | 0.00 | 0.00 | 100 | 949.7 |
| 20260507013422 | 58 | 194 | 2.0 | 8.0 | 0.00 | 0.00 | 0.00 | 100 | 949.8 |
| 20260507013219 | 58 | 209 | 2.0 | 13.0 | 0.00 | 0.00 | 0.00 | 100 | 949.9 |
| 20260507013118 | 58 | 217 | 2.0 | 13.0 | 0.00 | 0.00 | 0.00 | 100 | 949.8 |
| 20260507013013 | 58 | 211 | 2.0 | 13.0 | 0.00 | 0.00 | 0.00 | 100 | 949.8 |
| 20260507012810 | 58 | 219 | 1.0 | 10.0 | 0.00 | 0.00 | 0.00 | 100 | 950.0 |
| 20260507012607 | 58 | 0 | 1.0 | 6.0 | 0.00 | 0.00 | 0.00 | 100 | 949.9 |
| 20260507012506 | 58 | 0 | 1.0 | 6.0 | 0.00 | 0.00 | 0.00 | 100 | 949.8 |
| 20260507012404 | 58 | 209 | 2.0 | 10.0 | 0.00 | 0.00 | 0.00 | 100 | 949.9 |
| 20260507012201 | 58 | 200 | 2.0 | 10.0 | 0.00 | 0.00 | 0.00 | 100 | 949.8 |
| 20260507011958 | 59 | 182 | 2.0 | 16.0 | 0.00 | 0.00 | 0.00 | 100 | 949.7 |
| 20260507011857 | 59 | 176 | 3.0 | 16.0 | 0.00 | 0.00 | 0.00 | 100 | 949.7 |
| 20260507011755 | 59 | 176 | 4.0 | 16.0 | 0.00 | 0.00 | 0.00 | 100 | 949.6 |
| 20260507011552 | 59 | 180 | 3.0 | 12.0 | 0.00 | 0.00 | 0.00 | 100 | 949.5 |
| 20260507011349 | 59 | 200 | 3.0 | 14.0 | 0.00 | 0.00 | 0.00 | 100 | 949.6 |
| 20260507011253 | 59 | 193 | 3.0 | 14.0 | 0.00 | 0.00 | 0.00 | 100 | 949.4 |
| 20260507011146 | 59 | 194 | 4.0 | 14.0 | 0.00 | 0.00 | 0.00 | 100 | 949.4 |
| 20260507010943 | 59 | 176 | 5.0 | 17.0 | 0.00 | 0.00 | 0.00 | 100 | 949.4 |
| 20260507010739 | 59 | 172 | 5.0 | 17.0 | 0.00 | 0.00 | 0.00 | 100 | 949.2 |
| 20260507010639 | 59 | 177 | 4.0 | 16.0 | 0.00 | 0.00 | 0.00 | 100 | 949.4 |
| 20260507010536 | 59 | 181 | 3.0 | 16.0 | 0.00 | 0.00 | 0.00 | 100 | 949.4 |
| 20260507010333 | 59 | 180 | 2.0 | 11.0 | 0.00 | 0.00 | 0.00 | 100 | 949.5 |
| 20260507010130 | 59 | 175 | 3.0 | 11.0 | 0.00 | 0.00 | 0.00 | 100 | 949.5 |
| 20260507010029 | 59 | 174 | 3.0 | 11.0 | 0.00 | 0.00 | 0.00 | 100 | 949.5 |
| 20260507005927 | 59 | 177 | 2.0 | 7.0 | 0.00 | 0.00 | 0.00 | 100 | 949.6 |
| 20260507005724 | 59 | 199 | 2.0 | 6.0 | 0.00 | 0.00 | 0.00 | 100 | 949.4 |
| 20260507005520 | 59 | 200 | 2.0 | 11.0 | 0.00 | 0.00 | 0.00 | 100 | 949.5 |
| 20260507005420 | 59 | 201 | 2.0 | 11.0 | 0.00 | 0.00 | 0.00 | 100 | 949.3 |
| 20260507005317 | 59 | 212 | 2.0 | 11.0 | 0.00 | 0.00 | 0.00 | 100 | 949.3 |
| 20260507005114 | 59 | 215 | 2.0 | 9.0 | 0.00 | 0.00 | 0.00 | 100 | 949.3 |
| 20260507004910 | 59 | 197 | 2.0 | 7.0 | 0.00 | 0.00 | 0.00 | 100 | 949.5 |
| 20260507004810 | 59 | 173 | 2.0 | 7.0 | 0.00 | 0.00 | 0.00 | 100 | 949.5 |
| 20260507004708 | 59 | 176 | 3.0 | 7.0 | 0.00 | 0.00 | 0.00 | 100 | 949.4 |
| 20260507004505 | 59 | 197 | 3.0 | 12.0 | 0.00 | 0.00 | 0.00 | 100 | 949.2 |
| 20260507004302 | 59 | 216 | 3.0 | 12.0 | 0.00 | 0.00 | 0.00 | 100 | 949.3 |
| 20260507004202 | 59 | 214 | 3.0 | 12.0 | 0.00 | 0.00 | 0.00 | 100 | 949.2 |
| 20260507004059 | 59 | 201 | 2.0 | 10.0 | 0.00 | 0.00 | 0.00 | 100 | 949.4 |
| 20260507003856 | 59 | 211 | 2.0 | 10.0 | 0.00 | 0.00 | 0.00 | 100 | 949.3 |
| 20260507003653 | 59 | 205 | 2.0 | 10.0 | 0.00 | 0.00 | 0.00 | 100 | 949.2 |
| 20260507003552 | 59 | 206 | 2.0 | 9.0 | 0.00 | 0.00 | 0.00 | 100 | 949.2 |
| 20260507003450 | 59 | 197 | 2.0 | 10.0 | 0.00 | 0.00 | 0.00 | 100 | 949.2 |
| 20260507003247 | 59 | 204 | 2.0 | 10.0 | 0.00 | 0.00 | 0.00 | 100 | 949.2 |
| 20260507003044 | 59 | 184 | 2.0 | 10.0 | 0.00 | 0.00 | 0.00 | 100 | 949.1 |
| 20260507002943 | 59 | 184 | 3.0 | 9.0 | 0.00 | 0.00 | 0.00 | 100 | 949.1 |
| 20260507002825 | 59 | 189 | 3.0 | 9.0 | 0.00 | 0.00 | 0.00 | 100 | 949.2 |
| 20260507002622 | 59 | 185 | 2.0 | 9.0 | 0.00 | 0.00 | 0.00 | 100 | 949.1 |
| 20260507002418 | 60 | 194 | 1.0 | 7.0 | 0.00 | 0.00 | 0.00 | 100 | 949.2 |
| 20260507002318 | 60 | 212 | 1.0 | 6.0 | 0.00 | 0.00 | 0.00 | 100 | 949.3 |
| 20260507002219 | 60 | 208 | 2.0 | 6.0 | 0.00 | 0.00 | 0.00 | 100 | 949.2 |
| 20260507002012 | 60 | 177 | 3.0 | 12.0 | 0.00 | 0.00 | 0.00 | 100 | 949.3 |
| 20260507001809 | 60 | 182 | 3.0 | 12.0 | 0.00 | 0.00 | 0.00 | 100 | 949.1 |
| 20260507001709 | 60 | 197 | 2.0 | 12.0 | 0.00 | 0.00 | 0.00 | 100 | 949.1 |
| 20260507001606 | 60 | 248 | 2.0 | 12.0 | 0.00 | 0.00 | 0.00 | 100 | 949.1 |
| 20260507001403 | 60 | 222 | 2.0 | 10.0 | 0.00 | 0.00 | 0.00 | 100 | 949.2 |
| 20260507001201 | 60 | 209 | 2.0 | 10.0 | 0.00 | 0.00 | 0.00 | 100 | 949.1 |
| 20260507001101 | 60 | 208 | 2.0 | 11.0 | 0.00 | 0.00 | 0.00 | 100 | 949.1 |
| 20260507000958 | 60 | 207 | 2.0 | 11.0 | 0.00 | 0.00 | 0.00 | 100 | 949.1 |
| 20260507000756 | 60 | 217 | 3.0 | 13.0 | 0.00 | 0.00 | 0.00 | 100 | 949.0 |
| 20260507000552 | 60 | 192 | 4.0 | 14.0 | 0.00 | 0.00 | 0.00 | 100 | 949.1 |
| 20260507000451 | 60 | 182 | 5.0 | 15.0 | 0.00 | 0.00 | 0.00 | 100 | 949.0 |
| 20260507000350 | 60 | 180 | 5.0 | 15.0 | 0.00 | 0.00 | 0.00 | 100 | 949.0 |
| 20260507000146 | 60 | 194 | 2.0 | 15.0 | 0.00 | 0.00 | 0.00 | 100 | 948.9 |
| 20260506235943 | 60 | 190 | 3.0 | 14.0 | 0.00 | 0.00 | 0.00 | 100 | 948.9 |
| 20260506235842 | 60 | 185 | 4.0 | 20.0 | 0.00 | 0.00 | 0.00 | 100 | 948.8 |
| 20260506235740 | 60 | 179 | 6.0 | 20.0 | 0.00 | 0.00 | 0.00 | 100 | 948.8 |
| 20260506235538 | 60 | 173 | 8.0 | 24.0 | 0.00 | 0.00 | 0.00 | 100 | 948.7 |
| 20260506235334 | 60 | 170 | 6.0 | 24.0 | 0.00 | 0.00 | 0.00 | 100 | 948.7 |
| 20260506235234 | 60 | 174 | 5.0 | 14.0 | 0.00 | 0.00 | 0.00 | 100 | 948.8 |
| 20260506235132 | 60 | 176 | 3.0 | 14.0 | 0.00 | 0.00 | 0.00 | 100 | 948.9 |
| 20260506234928 | 60 | 182 | 4.0 | 16.0 | 0.00 | 0.00 | 0.00 | 100 | 948.9 |
| 20260506234725 | 60 | 185 | 4.0 | 16.0 | 0.00 | 0.00 | 0.00 | 100 | 948.9 |
| 20260506234624 | 60 | 184 | 4.0 | 16.0 | 0.00 | 0.00 | 0.00 | 100 | 948.9 |
| 20260506234525 | 60 | 183 | 3.0 | 11.0 | 0.00 | 0.00 | 0.00 | 100 | 949.0 |
| 20260506234318 | 60 | 198 | 3.0 | 11.0 | 0.00 | 0.00 | 0.00 | 100 | 948.9 |
| 20260506234115 | 60 | 210 | 3.0 | 11.0 | 0.00 | 0.00 | 0.00 | 100 | 949.0 |
| 20260506234015 | 61 | 216 | 3.0 | 11.0 | 0.00 | 0.00 | 0.00 | 100 | 948.9 |
| 20260506233913 | 60 | 217 | 3.0 | 11.0 | 0.00 | 0.00 | 0.00 | 100 | 949.0 |
| 20260506233709 | 60 | 215 | 2.0 | 10.0 | 0.00 | 0.00 | 0.00 | 100 | 949.1 |
| 20260506233506 | 60 | 206 | 2.0 | 10.0 | 0.00 | 0.00 | 0.00 | 100 | 949.1 |
| 20260506233405 | 60 | 206 | 2.0 | 9.0 | 0.00 | 0.00 | 0.00 | 100 | 949.1 |
| 20260506233302 | 60 | 201 | 2.0 | 7.0 | 0.00 | 0.00 | 0.00 | 100 | 949.0 |
| 20260506233059 | 60 | 193 | 2.0 | 10.0 | 0.00 | 0.00 | 0.00 | 100 | 949.1 |
| 20260506232856 | 60 | 200 | 2.0 | 10.0 | 0.00 | 0.00 | 0.00 | 100 | 948.9 |
| 20260506232755 | 60 | 198 | 2.0 | 10.0 | 0.00 | 0.00 | 0.00 | 100 | 949.1 |
| 20260506232649 | 60 | 213 | 2.0 | 6.0 | 0.00 | 0.00 | 0.00 | 100 | 949.0 |
| 20260506232454 | 60 | 221 | 2.0 | 8.0 | 0.00 | 0.00 | 0.00 | 100 | 949.0 |
| 20260506232243 | 61 | 214 | 2.0 | 12.0 | 0.00 | 0.00 | 0.00 | 100 | 949.0 |
| 20260506232142 | 61 | 212 | 2.0 | 12.0 | 0.00 | 0.00 | 0.00 | 100 | 949.0 |
| 20260506232040 | 61 | 214 | 2.0 | 12.0 | 0.00 | 0.00 | 0.00 | 100 | 949.0 |
| 20260506231836 | 61 | 216 | 2.0 | 12.0 | 0.00 | 0.00 | 0.00 | 100 | 948.9 |
| 20260506231633 | 61 | 220 | 2.0 | 12.0 | 0.00 | 0.00 | 0.00 | 100 | 948.9 |
| 20260506231532 | 61 | 226 | 2.0 | 14.0 | 0.00 | 0.00 | 0.00 | 100 | 948.9 |
| 20260506231429 | 61 | 240 | 2.0 | 14.0 | 0.00 | 0.00 | 0.00 | 100 | 948.8 |
| 20260506231226 | 61 | 222 | 3.0 | 14.0 | 0.00 | 0.00 | 0.00 | 100 | 948.8 |
| 20260506231024 | 61 | 219 | 3.0 | 10.0 | 0.00 | 0.00 | 0.00 | 100 | 948.8 |
| 20260506230923 | 61 | 219 | 3.0 | 11.0 | 0.00 | 0.00 | 0.00 | 100 | 948.8 |
| 20260506230826 | 61 | 208 | 3.0 | 12.0 | 0.00 | 0.00 | 0.00 | 100 | 948.9 |
| 20260506230617 | 61 | 209 | 3.0 | 12.0 | 0.00 | 0.00 | 0.00 | 100 | 948.8 |
| 20260506230414 | 61 | 234 | 2.0 | 13.0 | 0.00 | 0.00 | 0.00 | 100 | 948.8 |
| 20260506230313 | 61 | 230 | 2.0 | 13.0 | 0.00 | 0.00 | 0.00 | 100 | 948.7 |
| 20260506230211 | 61 | 218 | 2.0 | 13.0 | 0.00 | 0.00 | 0.00 | 100 | 948.7 |
| 20260506230007 | 61 | 216 | 2.0 | 13.0 | 0.00 | 0.00 | 0.00 | 100 | 948.8 |
| 20260506225804 | 61 | 193 | 3.0 | 18.0 | 0.00 | 0.00 | 0.00 | 100 | 948.9 |
| 20260506225703 | 61 | 198 | 4.0 | 18.0 | 0.00 | 0.00 | 0.00 | 100 | 948.9 |
| 20260506225601 | 61 | 194 | 4.0 | 18.0 | 0.00 | 0.00 | 0.00 | 100 | 948.7 |
| 20260506225358 | 61 | 207 | 3.0 | 13.0 | 0.00 | 0.00 | 0.00 | 100 | 949.0 |
| 20260506225156 | 61 | 197 | 3.0 | 16.0 | 0.00 | 0.00 | 0.00 | 100 | 949.0 |
| 20260506225055 | 61 | 194 | 4.0 | 16.0 | 0.00 | 0.00 | 0.00 | 100 | 948.9 |
| 20260506224952 | 62 | 195 | 4.0 | 16.0 | 0.00 | 0.00 | 0.00 | 100 | 948.9 |
| 20260506224749 | 62 | 192 | 4.0 | 20.0 | 0.00 | 0.00 | 0.00 | 100 | 949.0 |
| 20260506224546 | 62 | 187 | 4.0 | 20.0 | 0.00 | 0.00 | 0.00 | 100 | 949.0 |
| 20260506224445 | 62 | 186 | 4.0 | 20.0 | 0.00 | 0.00 | 0.00 | 100 | 948.9 |
| 20260506224342 | 62 | 192 | 4.0 | 24.0 | 0.00 | 0.00 | 0.00 | 100 | 948.8 |
| 20260506224139 | 62 | 191 | 4.0 | 24.0 | 0.00 | 0.00 | 0.00 | 100 | 949.0 |
| 20260506223935 | 62 | 189 | 4.0 | 17.0 | 0.00 | 0.00 | 0.00 | 100 | 948.8 |
| 20260506223835 | 62 | 190 | 4.0 | 17.0 | 0.00 | 0.00 | 0.00 | 100 | 948.9 |
| 20260506223732 | 62 | 195 | 4.0 | 16.0 | 0.00 | 0.00 | 0.00 | 100 | 948.8 |
| 20260506223529 | 62 | 213 | 3.0 | 16.0 | 0.00 | 0.00 | 0.00 | 100 | 948.9 |
| 20260506223326 | 62 | 209 | 4.0 | 16.0 | 0.00 | 0.00 | 0.00 | 100 | 948.8 |
| 20260506223225 | 62 | 202 | 4.0 | 17.0 | 0.00 | 0.00 | 0.00 | 100 | 948.8 |
| 20260506223123 | 62 | 204 | 4.0 | 17.0 | 0.00 | 0.00 | 0.00 | 100 | 948.9 |
| 20260506222920 | 62 | 203 | 4.0 | 20.0 | 0.00 | 0.00 | 0.00 | 100 | 948.8 |
| 20260506222717 | 62 | 196 | 4.0 | 20.0 | 0.00 | 0.00 | 0.00 | 100 | 948.9 |
| 20260506222616 | 62 | 195 | 4.0 | 20.0 | 0.00 | 0.00 | 0.00 | 100 | 948.8 |
| 20260506222511 | 62 | 205 | 4.0 | 11.0 | 0.00 | 0.00 | 0.00 | 100 | 948.9 |
| 20260506222308 | 62 | 203 | 3.0 | 13.0 | 0.00 | 0.00 | 0.00 | 100 | 948.9 |
| 20260506222105 | 62 | 198 | 4.0 | 23.0 | 0.00 | 0.00 | 0.00 | 100 | 948.8 |
| 20260506222005 | 62 | 193 | 5.0 | 23.0 | 0.00 | 0.00 | 0.00 | 100 | 948.8 |
| 20260506221903 | 62 | 197 | 5.0 | 23.0 | 0.00 | 0.00 | 0.00 | 100 | 948.5 |
| 20260506221700 | 62 | 199 | 4.0 | 16.0 | 0.00 | 0.00 | 0.00 | 100 | 948.8 |
| 20260506221456 | 62 | 206 | 3.0 | 12.0 | 0.00 | 0.00 | 0.00 | 100 | 948.7 |
| 20260506221355 | 62 | 211 | 3.0 | 11.0 | 0.00 | 0.00 | 0.00 | 100 | 948.8 |
| 20260506221253 | 62 | 207 | 4.0 | 18.0 | 0.00 | 0.00 | 0.00 | 100 | 948.7 |
| 20260506221049 | 62 | 194 | 4.0 | 18.0 | 0.00 | 0.00 | 0.00 | 100 | 948.7 |
| 20260506220846 | 62 | 213 | 3.0 | 14.0 | 0.00 | 0.00 | 0.00 | 100 | 948.6 |
| 20260506220745 | 62 | 226 | 3.0 | 9.0 | 0.00 | 0.00 | 0.00 | 100 | 948.8 |
| 20260506220643 | 62 | 222 | 3.0 | 11.0 | 0.00 | 0.00 | 0.00 | 100 | 948.8 |
| 20260506220441 | 62 | 209 | 4.0 | 13.0 | 0.00 | 0.00 | 0.00 | 100 | 948.8 |
| 20260506220238 | 62 | 203 | 4.0 | 19.0 | 0.00 | 0.00 | 0.00 | 100 | 948.9 |
| 20260506220137 | 62 | 205 | 4.0 | 19.0 | 0.00 | 0.00 | 0.00 | 100 | 949.0 |
| 20260506220034 | 62 | 207 | 3.0 | 19.0 | 0.00 | 0.00 | 0.00 | 100 | 948.8 |
| 20260506215831 | 62 | 210 | 3.0 | 10.0 | 0.00 | 0.00 | 0.00 | 100 | 948.7 |
| 20260506215628 | 62 | 204 | 3.0 | 12.0 | 0.00 | 0.00 | 0.00 | 100 | 948.7 |
| 20260506215527 | 62 | 206 | 3.0 | 12.0 | 0.00 | 0.00 | 0.00 | 100 | 948.8 |
| 20260506215425 | 62 | 214 | 3.0 | 12.0 | 0.00 | 0.00 | 0.00 | 100 | 948.8 |
| 20260506215222 | 62 | 218 | 3.0 | 10.0 | 0.00 | 0.00 | 0.00 | 100 | 948.8 |
| 20260506215019 | 62 | 208 | 3.0 | 12.0 | 0.00 | 0.00 | 0.00 | 100 | 948.8 |
| 20260506214904 | 62 | 190 | 3.0 | 14.0 | 0.00 | 0.00 | 0.00 | 100 | 948.7 |
| 20260506214802 | 62 | 190 | 4.0 | 14.0 | 0.00 | 0.00 | 0.00 | 100 | 948.7 |
| 20260506214559 | 62 | 193 | 4.0 | 14.0 | 0.00 | 0.00 | 0.00 | 100 | 948.7 |
| 20260506214356 | 63 | 194 | 4.0 | 14.0 | 0.00 | 0.00 | 0.00 | 100 | 948.5 |
| 20260506214255 | 63 | 191 | 3.0 | 14.0 | 0.00 | 0.00 | 0.00 | 100 | 948.8 |
| 20260506214153 | 62 | 194 | 4.0 | 14.0 | 0.00 | 0.00 | 0.00 | 100 | 948.7 |
| 20260506213949 | 62 | 199 | 3.0 | 13.0 | 0.00 | 0.00 | 0.00 | 100 | 948.7 |
| 20260506213746 | 63 | 199 | 3.0 | 12.0 | 0.00 | 0.00 | 0.00 | 100 | 948.6 |
| 20260506213645 | 63 | 199 | 3.0 | 12.0 | 0.00 | 0.00 | 0.00 | 100 | 948.8 |
| 20260506213543 | 63 | 210 | 3.0 | 16.0 | 0.00 | 0.00 | 0.00 | 100 | 948.7 |
| 20260506213340 | 63 | 189 | 3.0 | 16.0 | 0.00 | 0.00 | 0.00 | 100 | 948.6 |
| 20260506213136 | 63 | 204 | 3.0 | 10.0 | 0.00 | 0.00 | 0.00 | 100 | 948.6 |
| 20260506213035 | 63 | 230 | 2.0 | 10.0 | 0.00 | 0.00 | 0.00 | 100 | 948.6 |
| 20260506212933 | 63 | 241 | 2.0 | 10.0 | 0.00 | 0.00 | 0.00 | 100 | 948.7 |
| 20260506212730 | 63 | 219 | 3.0 | 17.0 | 0.00 | 0.00 | 0.00 | 100 | 948.7 |
| 20260506212526 | 63 | 198 | 3.0 | 19.0 | 0.00 | 0.00 | 0.00 | 100 | 948.6 |
| 20260506212425 | 63 | 203 | 4.0 | 19.0 | 0.00 | 0.00 | 0.00 | 100 | 948.7 |
| 20260506212320 | 63 | 202 | 4.0 | 19.0 | 0.00 | 0.00 | 0.00 | 100 | 948.6 |
| 20260506212116 | 63 | 212 | 3.0 | 19.0 | 0.00 | 0.00 | 0.00 | 100 | 948.7 |
| 20260506211913 | 63 | 217 | 2.0 | 10.0 | 0.00 | 0.00 | 0.00 | 100 | 948.6 |
| 20260506211812 | 63 | 225 | 2.0 | 9.0 | 0.00 | 0.00 | 0.00 | 100 | 948.6 |
| 20260506211710 | 63 | 190 | 3.0 | 17.0 | 0.00 | 0.00 | 0.00 | 100 | 948.6 |
| 20260506211507 | 63 | 190 | 3.0 | 17.0 | 0.00 | 0.00 | 0.00 | 100 | 948.7 |
| 20260506211303 | 63 | 199 | 4.0 | 14.0 | 0.00 | 0.00 | 0.00 | 100 | 948.7 |
| 20260506211202 | 63 | 204 | 3.0 | 14.0 | 0.00 | 0.00 | 0.00 | 100 | 948.5 |
| 20260506211100 | 63 | 201 | 3.0 | 12.0 | 0.00 | 0.00 | 0.00 | 100 | 948.6 |
| 20260506210856 | 63 | 205 | 3.0 | 18.0 | 0.00 | 0.00 | 0.00 | 100 | 948.7 |
| 20260506210654 | 64 | 201 | 3.0 | 18.0 | 0.00 | 0.00 | 0.00 | 100 | 948.6 |
| 20260506210553 | 64 | 190 | 4.0 | 23.0 | 0.00 | 0.00 | 0.00 | 100 | 948.4 |
| 20260506210451 | 64 | 192 | 4.0 | 23.0 | 0.00 | 0.00 | 0.00 | 100 | 948.7 |
| 20260506210247 | 64 | 197 | 5.0 | 23.0 | 0.00 | 0.00 | 0.00 | 100 | 948.5 |
| 20260506210044 | 64 | 216 | 4.0 | 15.0 | 0.00 | 0.00 | 0.00 | 100 | 948.4 |
| 20260506205944 | 64 | 224 | 4.0 | 15.0 | 0.00 | 0.00 | 0.00 | 100 | 948.5 |
| 20260506205841 | 64 | 230 | 4.0 | 15.0 | 0.00 | 0.00 | 0.00 | 100 | 948.4 |
| 20260506205638 | 64 | 207 | 4.0 | 15.0 | 0.00 | 0.00 | 0.00 | 100 | 948.5 |
| 20260506205435 | 64 | 202 | 4.0 | 16.0 | 0.00 | 0.00 | 0.00 | 100 | 948.4 |
| 20260506205335 | 64 | 198 | 4.0 | 16.0 | 0.00 | 0.00 | 0.00 | 100 | 948.5 |
| 20260506205232 | 64 | 203 | 4.0 | 16.0 | 0.00 | 0.00 | 0.00 | 100 | 948.5 |
| 20260506205029 | 64 | 219 | 3.0 | 15.0 | 0.00 | 0.00 | 0.00 | 100 | 948.4 |
| 20260506204826 | 64 | 204 | 4.0 | 15.0 | 0.00 | 0.00 | 0.00 | 100 | 948.3 |
| 20260506204725 | 64 | 197 | 4.0 | 15.0 | 0.00 | 0.00 | 0.00 | 100 | 948.3 |
| 20260506204623 | 64 | 188 | 4.0 | 15.0 | 0.00 | 0.00 | 0.00 | 100 | 948.4 |
| 20260506204419 | 64 | 181 | 4.0 | 17.0 | 0.00 | 0.00 | 0.00 | 100 | 948.5 |
| 20260506204216 | 64 | 190 | 4.0 | 17.0 | 0.00 | 0.00 | 0.00 | 100 | 948.5 |
| 20260506204116 | 64 | 188 | 4.0 | 17.0 | 0.00 | 0.00 | 0.00 | 100 | 948.4 |
| 20260506204014 | 64 | 208 | 3.0 | 17.0 | 0.00 | 0.00 | 0.00 | 100 | 948.5 |
| 20260506203812 | 64 | 202 | 4.0 | 15.0 | 0.00 | 0.00 | 0.00 | 100 | 948.4 |
| 20260506203609 | 64 | 209 | 4.0 | 18.0 | 0.00 | 0.00 | 0.00 | 100 | 948.3 |
| 20260506203508 | 64 | 200 | 4.0 | 18.0 | 0.00 | 0.00 | 0.00 | 100 | 948.5 |
| 20260506203405 | 64 | 199 | 4.0 | 18.0 | 0.00 | 0.00 | 0.00 | 100 | 948.5 |
| 20260506203202 | 64 | 198 | 3.0 | 16.0 | 0.00 | 0.00 | 0.00 | 100 | 948.6 |
| 20260506202959 | 64 | 196 | 3.0 | 16.0 | 0.00 | 0.00 | 0.00 | 100 | 948.5 |
| 20260506202858 | 64 | 185 | 4.0 | 21.0 | 0.00 | 0.00 | 0.00 | 100 | 948.5 |
| 20260506202756 | 64 | 186 | 5.0 | 21.0 | 0.00 | 0.00 | 0.00 | 100 | 948.5 |
| 20260506202553 | 64 | 185 | 4.0 | 21.0 | 0.00 | 0.00 | 0.00 | 100 | 948.6 |
| 20260506202350 | 64 | 201 | 4.0 | 13.0 | 0.00 | 0.00 | 0.00 | 100 | 948.6 |
| 20260506202249 | 64 | 209 | 4.0 | 13.0 | 0.00 | 0.00 | 0.00 | 100 | 948.6 |
| 20260506202143 | 64 | 200 | 4.0 | 13.0 | 0.00 | 0.00 | 0.00 | 100 | 948.6 |
| 20260506201940 | 64 | 205 | 3.0 | 13.0 | 0.00 | 0.00 | 0.00 | 100 | 948.6 |
| 20260506201738 | 64 | 196 | 3.0 | 13.0 | 0.00 | 0.00 | 0.00 | 100 | 948.6 |
| 20260506201637 | 64 | 190 | 3.0 | 11.0 | 0.00 | 0.00 | 0.00 | 100 | 948.6 |
| 20260506201534 | 64 | 197 | 3.0 | 11.0 | 0.00 | 0.00 | 0.00 | 100 | 948.6 |
| 20260506201331 | 64 | 200 | 2.0 | 11.0 | 0.00 | 0.00 | 0.00 | 100 | 948.7 |
| 20260506201128 | 64 | 191 | 3.0 | 16.0 | 0.00 | 0.00 | 0.00 | 100 | 948.7 |
| 20260506201027 | 64 | 191 | 3.0 | 16.0 | 0.00 | 0.00 | 0.00 | 100 | 948.6 |
| 20260506200925 | 64 | 192 | 3.0 | 16.0 | 0.00 | 0.00 | 0.00 | 100 | 948.6 |
| 20260506200721 | 64 | 206 | 2.0 | 10.0 | 0.00 | 0.00 | 0.00 | 100 | 948.7 |
| 20260506200519 | 64 | 220 | 2.0 | 6.0 | 0.00 | 0.00 | 0.00 | 100 | 948.7 |
| 20260506200418 | 64 | 208 | 2.0 | 9.0 | 0.00 | 0.00 | 0.00 | 100 | 948.6 |
| 20260506200316 | 64 | 203 | 2.0 | 9.0 | 0.00 | 0.00 | 0.00 | 100 | 948.8 |
| 20260506200113 | 64 | 0 | 2.0 | 9.0 | 0.00 | 0.00 | 0.00 | 100 | 948.8 |
| 20260506195909 | 64 | 0 | 2.0 | 8.0 | 0.00 | 0.00 | 0.00 | 100 | 948.8 |
| 20260506195809 | 64 | 212 | 2.0 | 12.0 | 0.00 | 0.00 | 0.00 | 100 | 948.8 |
| 20260506195707 | 64 | 190 | 4.0 | 20.0 | 0.00 | 0.00 | 0.00 | 100 | 948.8 |
| 20260506195504 | 64 | 190 | 4.0 | 20.0 | 0.00 | 0.00 | 0.00 | 100 | 948.8 |
| 20260506195301 | 64 | 189 | 3.0 | 12.0 | 0.00 | 0.00 | 0.00 | 100 | 948.8 |
| 20260506195200 | 64 | 187 | 3.0 | 12.0 | 0.00 | 0.00 | 0.00 | 100 | 948.8 |
| 20260506195058 | 64 | 189 | 3.0 | 12.0 | 0.00 | 0.00 | 0.00 | 100 | 948.8 |
| 20260506194854 | 64 | 196 | 3.0 | 14.0 | 0.00 | 0.00 | 0.00 | 100 | 948.8 |
| 20260506194651 | 64 | 199 | 3.0 | 14.0 | 0.00 | 0.00 | 0.00 | 100 | 948.8 |
| 20260506194551 | 64 | 186 | 4.0 | 15.0 | 0.00 | 0.00 | 0.00 | 100 | 948.8 |
| 20260506194448 | 64 | 185 | 3.0 | 15.0 | 0.00 | 0.00 | 0.00 | 100 | 948.8 |
| 20260506194245 | 64 | 187 | 3.0 | 15.0 | 0.00 | 0.00 | 0.00 | 100 | 948.8 |
| 20260506194042 | 64 | 196 | 2.0 | 10.0 | 0.00 | 0.00 | 0.00 | 100 | 948.7 |
| 20260506193942 | 64 | 197 | 2.0 | 10.0 | 0.00 | 0.00 | 0.00 | 100 | 948.8 |
| 20260506193840 | 63 | 197 | 2.0 | 10.0 | 0.00 | 0.00 | 0.00 | 100 | 948.8 |
| 20260506193637 | 63 | 199 | 2.0 | 5.0 | 0.00 | 0.00 | 0.00 | 100 | 948.8 |
| 20260506193434 | 63 | 208 | 2.0 | 11.0 | 0.00 | 0.00 | 0.00 | 100 | 948.8 |
| 20260506193333 | 63 | 203 | 2.0 | 11.0 | 0.00 | 0.00 | 0.00 | 100 | 948.8 |
| 20260506193230 | 63 | 197 | 2.0 | 11.0 | 0.00 | 0.00 | 0.00 | 100 | 948.9 |
| 20260506193027 | 63 | 188 | 2.0 | 6.0 | 0.00 | 0.00 | 0.00 | 100 | 948.9 |
| 20260506192823 | 63 | 184 | 2.0 | 7.0 | 0.00 | 0.00 | 0.00 | 100 | 948.9 |
| 20260506192723 | 63 | 181 | 2.0 | 8.0 | 0.00 | 0.00 | 0.00 | 100 | 948.8 |
| 20260506192621 | 63 | 179 | 2.0 | 8.0 | 0.00 | 0.00 | 0.00 | 100 | 948.8 |
| 20260506192418 | 63 | 177 | 2.0 | 8.0 | 0.00 | 0.00 | 0.00 | 100 | 948.8 |
| 20260506192215 | 63 | 178 | 2.0 | 6.0 | 0.00 | 0.00 | 0.00 | 100 | 948.8 |
| 20260506192114 | 63 | 181 | 2.0 | 6.0 | 0.00 | 0.00 | 0.00 | 100 | 948.8 |
| 20260506191913 | 63 | 198 | 1.0 | 5.0 | 0.00 | 0.00 | 0.00 | 100 | 948.8 |
| 20260506191710 | 63 | 183 | 2.0 | 7.0 | 0.00 | 0.00 | 0.00 | 100 | 948.8 |
| 20260506191609 | 63 | 177 | 2.0 | 7.0 | 0.00 | 0.00 | 0.00 | 100 | 948.8 |
| 20260506191507 | 63 | 172 | 2.0 | 7.0 | 0.00 | 0.00 | 0.00 | 100 | 948.7 |
| 20260506191304 | 63 | 171 | 3.0 | 8.0 | 0.00 | 0.00 | 0.00 | 100 | 948.8 |
| 20260506191100 | 63 | 170 | 2.0 | 8.0 | 0.00 | 0.00 | 0.00 | 100 | 948.8 |
| 20260506191000 | 63 | 169 | 2.0 | 5.0 | 0.00 | 0.00 | 0.00 | 100 | 948.9 |
| 20260506190858 | 63 | 165 | 2.0 | 5.0 | 0.00 | 0.00 | 0.00 | 100 | 948.9 |
| 20260506190655 | 63 | 165 | 3.0 | 7.0 | 0.00 | 0.00 | 0.00 | 100 | 948.8 |
| 20260506190451 | 64 | 170 | 3.0 | 7.0 | 0.00 | 0.00 | 0.00 | 100 | 948.7 |
| 20260506190336 | 63 | 172 | 3.0 | 8.0 | 0.00 | 0.00 | 0.00 | 100 | 948.8 |
| 20260506190234 | 63 | 172 | 2.0 | 8.0 | 0.00 | 0.00 | 0.00 | 100 | 948.7 |
| 20260506190031 | 63 | 174 | 2.0 | 8.0 | 0.00 | 0.00 | 0.00 | 100 | 948.6 |
| 20260506185828 | 64 | 176 | 2.0 | 5.0 | 0.00 | 0.00 | 0.00 | 100 | 948.7 |
| 20260506185727 | 64 | 173 | 2.0 | 5.0 | 0.00 | 0.00 | 0.00 | 100 | 948.8 |
| 20260506185625 | 64 | 172 | 2.0 | 5.0 | 0.00 | 0.00 | 0.00 | 100 | 948.7 |
| 20260506185421 | 64 | 171 | 2.0 | 5.0 | 0.00 | 0.00 | 0.00 | 100 | 948.8 |
| 20260506185218 | 64 | 172 | 2.0 | 6.0 | 0.00 | 0.00 | 0.00 | 100 | 948.7 |
| 20260506185117 | 64 | 173 | 2.0 | 6.0 | 0.00 | 0.00 | 0.00 | 100 | 948.6 |
| 20260506185015 | 64 | 171 | 2.0 | 6.0 | 0.00 | 0.00 | 0.00 | 100 | 948.8 |
| 20260506184812 | 64 | 168 | 3.0 | 8.0 | 0.00 | 0.00 | 0.00 | 100 | 948.8 |
| 20260506184609 | 64 | 167 | 3.0 | 8.0 | 0.00 | 0.00 | 0.00 | 100 | 948.8 |
| 20260506184508 | 64 | 168 | 2.0 | 8.0 | 0.00 | 0.00 | 0.00 | 100 | 948.7 |
| 20260506184405 | 64 | 178 | 2.0 | 6.0 | 0.00 | 0.00 | 0.00 | 100 | 948.6 |
| 20260506184202 | 65 | 168 | 4.0 | 12.0 | 0.00 | 0.00 | 0.00 | 100 | 948.7 |
| 20260506183959 | 65 | 166 | 5.0 | 12.0 | 0.00 | 0.00 | 0.00 | 100 | 948.7 |
| 20260506183858 | 65 | 167 | 4.0 | 12.0 | 0.00 | 0.00 | 0.00 | 100 | 948.7 |
| 20260506183756 | 65 | 177 | 4.0 | 10.0 | 0.00 | 0.00 | 0.00 | 100 | 948.7 |
| 20260506183554 | 65 | 181 | 4.0 | 14.0 | 0.00 | 0.00 | 0.00 | 100 | 948.8 |
| 20260506183351 | 65 | 179 | 4.0 | 14.0 | 0.00 | 0.00 | 0.00 | 100 | 948.6 |
| 20260506183251 | 65 | 177 | 4.0 | 11.0 | 0.00 | 0.00 | 0.00 | 100 | 948.6 |
| 20260506183149 | 65 | 177 | 4.0 | 11.0 | 0.00 | 0.00 | 0.00 | 100 | 948.6 |
| 20260506182946 | 65 | 183 | 3.0 | 9.0 | 0.00 | 0.00 | 0.00 | 100 | 948.6 |
| 20260506182743 | 65 | 182 | 3.0 | 8.0 | 0.00 | 0.00 | 0.00 | 100 | 948.8 |
| 20260506182642 | 65 | 181 | 3.0 | 8.0 | 0.00 | 0.00 | 0.00 | 100 | 948.7 |
| 20260506182540 | 65 | 182 | 3.0 | 10.0 | 0.00 | 0.00 | 0.00 | 100 | 948.7 |
| 20260506182337 | 65 | 183 | 3.0 | 10.0 | 0.00 | 0.00 | 0.00 | 100 | 948.6 |
| 20260506182133 | 65 | 181 | 3.0 | 10.0 | 0.00 | 0.00 | 0.00 | 100 | 948.6 |
| 20260506182033 | 65 | 179 | 3.0 | 10.0 | 0.00 | 0.00 | 0.00 | 100 | 948.5 |
| 20260506181930 | 65 | 178 | 3.0 | 10.0 | 0.00 | 0.00 | 0.00 | 100 | 948.5 |
| 20260506181728 | 65 | 182 | 3.0 | 8.0 | 0.00 | 0.00 | 0.00 | 100 | 948.7 |
| 20260506181525 | 65 | 178 | 4.0 | 12.0 | 0.00 | 0.00 | 0.00 | 100 | 948.6 |
| 20260506181424 | 65 | 175 | 4.0 | 13.0 | 0.00 | 0.00 | 0.00 | 100 | 948.6 |
| 20260506181322 | 66 | 175 | 4.0 | 13.0 | 0.00 | 0.00 | 0.00 | 100 | 948.6 |
| 20260506181119 | 65 | 173 | 3.0 | 13.0 | 0.00 | 0.00 | 0.00 | 100 | 948.6 |
| 20260506180915 | 65 | 177 | 3.0 | 8.0 | 0.00 | 0.00 | 0.00 | 100 | 948.6 |
| 20260506180815 | 65 | 180 | 2.0 | 8.0 | 0.00 | 0.00 | 0.00 | 100 | 948.6 |
| 20260506180712 | 65 | 182 | 3.0 | 8.0 | 0.00 | 0.00 | 0.00 | 100 | 948.5 |
| 20260506180509 | 66 | 174 | 3.0 | 8.0 | 0.00 | 0.00 | 0.00 | 100 | 948.6 |
| 20260506180306 | 66 | 175 | 3.0 | 9.0 | 0.00 | 0.00 | 0.00 | 100 | 948.6 |
| 20260506180205 | 66 | 177 | 3.0 | 9.0 | 0.00 | 0.00 | 0.00 | 100 | 948.7 |
| 20260506175859 | 66 | 176 | 3.0 | 10.0 | 0.00 | 0.00 | 0.00 | 100 | 948.6 |
| 20260506175656 | 66 | 179 | 3.0 | 10.0 | 0.00 | 0.00 | 0.00 | 100 | 948.7 |
| 20260506175555 | 66 | 170 | 3.0 | 11.0 | 0.00 | 0.00 | 0.00 | 100 | 948.7 |
| 20260506175453 | 66 | 171 | 4.0 | 20.0 | 0.00 | 0.00 | 0.00 | 100 | 948.7 |
| 20260506175249 | 66 | 168 | 6.0 | 20.0 | 0.00 | 0.00 | 0.00 | 100 | 948.7 |
| 20260506175046 | 66 | 169 | 6.0 | 15.0 | 0.00 | 0.00 | 0.00 | 100 | 948.7 |
| 20260506174945 | 66 | 169 | 6.0 | 14.0 | 0.00 | 0.00 | 0.00 | 100 | 948.7 |
| 20260506174843 | 66 | 167 | 6.0 | 14.0 | 0.00 | 0.00 | 0.00 | 100 | 948.7 |
| 20260506174640 | 66 | 169 | 5.0 | 12.0 | 0.00 | 0.00 | 0.00 | 100 | 948.8 |
| 20260506174436 | 66 | 177 | 4.0 | 12.0 | 0.00 | 0.00 | 0.00 | 100 | 948.7 |
| 20260506174336 | 66 | 182 | 4.0 | 12.0 | 0.00 | 0.00 | 0.00 | 100 | 948.7 |
| 20260506174234 | 66 | 184 | 3.0 | 11.0 | 0.00 | 0.00 | 0.00 | 100 | 948.7 |
| 20260506174031 | 66 | 188 | 2.0 | 10.0 | 0.00 | 0.00 | 0.00 | 100 | 948.8 |
| 20260506173827 | 66 | 196 | 2.0 | 10.0 | 0.00 | 0.00 | 0.00 | 100 | 948.7 |
| 20260506173727 | 66 | 186 | 2.0 | 10.0 | 0.00 | 0.00 | 0.00 | 100 | 948.7 |
| 20260506173624 | 67 | 181 | 3.0 | 10.0 | 0.00 | 0.00 | 0.00 | 100 | 948.7 |
| 20260506173421 | 67 | 178 | 4.0 | 10.0 | 0.00 | 0.00 | 0.00 | 100 | 948.7 |
| 20260506173217 | 67 | 179 | 3.0 | 10.0 | 0.00 | 0.00 | 0.00 | 100 | 948.8 |
| 20260506173117 | 67 | 179 | 4.0 | 13.0 | 0.00 | 0.00 | 0.00 | 100 | 948.6 |
| 20260506173014 | 67 | 187 | 3.0 | 13.0 | 0.00 | 0.00 | 0.00 | 100 | 948.8 |
| 20260506172811 | 67 | 188 | 3.0 | 13.0 | 0.00 | 0.00 | 0.00 | 100 | 948.7 |
| 20260506172608 | 67 | 188 | 2.0 | 10.0 | 0.00 | 0.00 | 0.00 | 100 | 948.8 |
| 20260506172508 | 67 | 180 | 3.0 | 12.0 | 0.00 | 0.00 | 0.00 | 100 | 948.7 |
| 20260506172405 | 67 | 182 | 2.0 | 12.0 | 0.00 | 0.00 | 0.00 | 100 | 948.7 |
| 20260506172202 | 67 | 183 | 3.0 | 12.0 | 0.00 | 0.00 | 0.00 | 100 | 948.7 |
| 20260506171958 | 67 | 191 | 3.0 | 10.0 | 0.00 | 0.00 | 0.00 | 100 | 948.7 |
| 20260506171857 | 67 | 193 | 2.0 | 10.0 | 0.00 | 0.00 | 0.00 | 100 | 948.7 |
| 20260506171755 | 67 | 190 | 2.0 | 10.0 | 0.00 | 0.00 | 0.00 | 100 | 948.7 |
| 20260506171552 | 67 | 179 | 4.0 | 13.0 | 0.00 | 0.00 | 0.00 | 100 | 948.7 |
| 20260506171349 | 67 | 183 | 4.0 | 13.0 | 0.00 | 0.00 | 0.00 | 100 | 948.7 |
| 20260506171248 | 67 | 191 | 3.0 | 13.0 | 0.00 | 0.00 | 0.00 | 100 | 948.7 |
| 20260506171146 | 67 | 197 | 3.0 | 16.0 | 0.00 | 0.00 | 0.00 | 100 | 948.6 |
| 20260506170943 | 67 | 191 | 3.0 | 16.0 | 0.00 | 0.00 | 0.00 | 100 | 948.7 |
| 20260506170740 | 67 | 205 | 3.0 | 11.0 | 0.00 | 0.00 | 0.00 | 100 | 948.8 |
| 20260506170640 | 67 | 210 | 2.0 | 9.0 | 0.00 | 0.00 | 0.00 | 100 | 948.7 |
| 20260506170537 | 67 | 212 | 2.0 | 9.0 | 0.00 | 0.00 | 0.00 | 100 | 948.8 |
| 20260506170334 | 67 | 209 | 3.0 | 12.0 | 0.00 | 0.00 | 0.00 | 100 | 948.8 |
| 20260506170131 | 68 | 216 | 2.0 | 12.0 | 0.00 | 0.00 | 0.00 | 100 | 948.8 |
| 20260506170030 | 68 | 226 | 2.0 | 12.0 | 0.00 | 0.00 | 0.00 | 100 | 948.8 |
| 20260506165928 | 68 | 221 | 2.0 | 9.0 | 0.00 | 0.00 | 0.00 | 100 | 948.8 |
| 20260506165724 | 68 | 231 | 2.0 | 9.0 | 0.00 | 0.00 | 0.00 | 100 | 948.8 |
| 20260506165521 | 68 | 216 | 2.0 | 9.0 | 0.00 | 0.00 | 0.00 | 100 | 948.8 |
| 20260506165421 | 68 | 211 | 2.0 | 9.0 | 0.00 | 0.00 | 0.00 | 100 | 948.9 |
| 20260506165318 | 68 | 206 | 2.0 | 9.0 | 0.00 | 0.00 | 0.00 | 100 | 948.8 |
| 20260506165116 | 68 | 203 | 2.0 | 10.0 | 0.00 | 0.00 | 0.00 | 100 | 948.7 |
| 20260506164913 | 68 | 199 | 3.0 | 10.0 | 0.00 | 0.00 | 0.00 | 100 | 948.7 |
| 20260506164812 | 68 | 212 | 2.0 | 10.0 | 0.00 | 0.00 | 0.00 | 100 | 948.7 |
| 20260506164709 | 68 | 235 | 2.0 | 8.0 | 0.00 | 0.00 | 0.00 | 100 | 948.8 |
| 20260506164507 | 68 | 238 | 2.0 | 7.0 | 0.00 | 0.00 | 0.00 | 100 | 948.7 |
| 20260506164304 | 68 | 213 | 2.0 | 11.0 | 0.00 | 0.00 | 0.00 | 100 | 948.7 |
| 20260506164203 | 68 | 218 | 2.0 | 11.0 | 0.00 | 0.00 | 0.00 | 100 | 948.7 |
| 20260506164101 | 68 | 217 | 2.0 | 11.0 | 0.00 | 0.00 | 0.00 | 100 | 948.6 |
| 20260506163858 | 68 | 210 | 2.0 | 8.0 | 0.00 | 0.00 | 0.00 | 100 | 948.8 |
| 20260506163655 | 68 | 203 | 2.0 | 8.0 | 0.00 | 0.00 | 0.00 | 100 | 948.8 |
| 20260506163554 | 68 | 197 | 2.0 | 8.0 | 0.00 | 0.00 | 0.00 | 100 | 948.7 |
| 20260506163452 | 68 | 215 | 2.0 | 8.0 | 0.00 | 0.00 | 0.00 | 100 | 948.8 |
| 20260506163249 | 68 | 220 | 2.0 | 9.0 | 0.00 | 0.00 | 0.00 | 100 | 948.8 |
| 20260506163046 | 68 | 222 | 2.0 | 9.0 | 0.00 | 0.00 | 0.00 | 100 | 948.8 |
| 20260506162945 | 68 | 220 | 2.0 | 9.0 | 0.00 | 0.00 | 0.00 | 100 | 948.8 |
| 20260506162842 | 68 | 219 | 2.0 | 8.0 | 0.00 | 0.00 | 0.00 | 100 | 948.8 |
| 20260506162639 | 68 | 0 | 2.0 | 8.0 | 0.00 | 0.00 | 0.00 | 100 | 948.9 |
| 20260506162423 | 68 | 0 | 2.0 | 9.0 | 0.00 | 0.00 | 0.00 | 100 | 948.9 |
| 20260506162322 | 68 | 0 | 2.0 | 10.0 | 0.00 | 0.00 | 0.00 | 100 | 948.8 |
| 20260506162219 | 68 | 219 | 2.0 | 10.0 | 0.00 | 0.00 | 0.00 | 100 | 948.8 |
| 20260506162016 | 68 | 223 | 2.0 | 10.0 | 0.00 | 0.00 | 0.00 | 100 | 948.9 |
| 20260506161813 | 68 | 0 | 2.0 | 8.0 | 0.00 | 0.00 | 0.00 | 100 | 949.0 |
| 20260506161712 | 68 | 0 | 2.0 | 8.0 | 0.00 | 0.00 | 0.00 | 100 | 948.9 |
| 20260506161610 | 68 | 220 | 2.0 | 10.0 | 0.00 | 0.00 | 0.00 | 100 | 948.9 |
| 20260506161406 | 68 | 214 | 3.0 | 13.0 | 0.00 | 0.00 | 0.00 | 100 | 948.9 |
| 20260506161203 | 69 | 220 | 2.0 | 13.0 | 0.00 | 0.00 | 0.00 | 100 | 948.8 |
| 20260506161102 | 69 | 235 | 2.0 | 11.0 | 0.00 | 0.00 | 0.00 | 100 | 949.0 |
| 20260506160959 | 69 | 225 | 2.0 | 11.0 | 0.00 | 0.00 | 0.00 | 100 | 949.0 |
| 20260506160757 | 69 | 219 | 2.0 | 10.0 | 0.00 | 0.00 | 0.00 | 100 | 948.9 |
| 20260506160553 | 69 | 210 | 2.0 | 9.0 | 0.00 | 0.00 | 0.00 | 100 | 948.9 |
| 20260506160453 | 69 | 213 | 2.0 | 13.0 | 0.00 | 0.00 | 0.00 | 100 | 948.9 |
| 20260506160350 | 69 | 216 | 2.0 | 13.0 | 0.00 | 0.00 | 0.00 | 100 | 948.8 |
| 20260506160147 | 69 | 209 | 3.0 | 15.0 | 0.00 | 0.00 | 0.00 | 100 | 949.0 |
| 20260506155944 | 69 | 190 | 3.0 | 15.0 | 0.00 | 0.00 | 0.00 | 100 | 949.0 |
| 20260506155843 | 69 | 188 | 4.0 | 17.0 | 0.00 | 0.00 | 0.00 | 100 | 948.9 |
| 20260506155740 | 69 | 189 | 4.0 | 17.0 | 0.00 | 0.00 | 0.00 | 100 | 949.0 |
| 20260506155538 | 69 | 191 | 3.0 | 16.0 | 0.00 | 0.00 | 0.00 | 100 | 948.8 |
| 20260506155334 | 70 | 204 | 3.0 | 10.0 | 0.00 | 0.00 | 0.00 | 100 | 948.9 |
| 20260506155233 | 70 | 205 | 3.0 | 10.0 | 0.00 | 0.00 | 0.00 | 100 | 948.9 |
| 20260506155132 | 70 | 212 | 3.0 | 10.0 | 0.00 | 0.00 | 0.00 | 100 | 948.9 |
| 20260506154929 | 70 | 217 | 3.0 | 10.0 | 0.00 | 0.00 | 0.00 | 100 | 949.0 |
| 20260506154726 | 70 | 229 | 2.0 | 10.0 | 0.00 | 0.00 | 0.00 | 100 | 949.0 |
| 20260506154625 | 70 | 231 | 2.0 | 10.0 | 0.00 | 0.00 | 0.00 | 100 | 949.0 |
| 20260506154522 | 70 | 206 | 3.0 | 14.0 | 0.00 | 0.00 | 0.00 | 100 | 949.0 |
| 20260506154319 | 70 | 189 | 4.0 | 16.0 | 0.00 | 0.00 | 0.00 | 100 | 949.1 |
| 20260506154116 | 70 | 203 | 3.0 | 16.0 | 0.00 | 0.00 | 0.00 | 100 | 949.0 |
| 20260506154015 | 70 | 207 | 3.0 | 16.0 | 0.00 | 0.00 | 0.00 | 100 | 949.0 |
| 20260506153913 | 70 | 214 | 2.0 | 14.0 | 0.00 | 0.00 | 0.00 | 100 | 948.9 |
| 20260506153710 | 70 | 238 | 2.0 | 8.0 | 0.00 | 0.00 | 0.00 | 100 | 949.1 |
| 20260506153507 | 70 | 224 | 2.0 | 10.0 | 0.00 | 0.00 | 0.00 | 100 | 949.1 |
| 20260506153406 | 70 | 216 | 3.0 | 12.0 | 0.00 | 0.00 | 0.00 | 100 | 949.1 |
| 20260506153303 | 69 | 194 | 3.0 | 12.0 | 0.00 | 0.00 | 0.00 | 100 | 949.1 |
| 20260506153101 | 69 | 194 | 3.0 | 12.0 | 0.00 | 0.00 | 0.00 | 100 | 949.1 |
| 20260506152858 | 69 | 229 | 2.0 | 10.0 | 0.00 | 0.00 | 0.00 | 100 | 949.1 |
| 20260506152757 | 69 | 242 | 2.0 | 10.0 | 0.00 | 0.00 | 0.00 | 100 | 949.2 |
| 20260506152655 | 69 | 212 | 2.0 | 10.0 | 0.00 | 0.00 | 0.00 | 100 | 949.1 |
| 20260506152453 | 69 | 205 | 2.0 | 10.0 | 0.00 | 0.00 | 0.00 | 100 | 949.2 |
| 20260506152250 | 69 | 225 | 2.0 | 10.0 | 0.00 | 0.00 | 0.00 | 100 | 949.3 |
| 20260506152149 | 69 | 218 | 2.0 | 10.0 | 0.00 | 0.00 | 0.00 | 100 | 949.2 |
| 20260506152046 | 69 | 207 | 3.0 | 12.0 | 0.00 | 0.00 | 0.00 | 100 | 949.3 |
| 20260506151843 | 69 | 204 | 3.0 | 12.0 | 0.00 | 0.00 | 0.00 | 100 | 949.2 |
| 20260506151640 | 69 | 206 | 3.0 | 12.0 | 0.00 | 0.00 | 0.00 | 100 | 949.2 |
| 20260506151540 | 69 | 205 | 3.0 | 9.0 | 0.00 | 0.00 | 0.00 | 100 | 949.2 |
| 20260506151437 | 69 | 204 | 3.0 | 9.0 | 0.00 | 0.00 | 0.00 | 100 | 949.2 |
| 20260506151234 | 69 | 200 | 3.0 | 10.0 | 0.00 | 0.00 | 0.00 | 100 | 949.2 |
| 20260506151032 | 69 | 181 | 3.0 | 11.0 | 0.00 | 0.00 | 0.00 | 100 | 949.2 |
| 20260506150931 | 69 | 174 | 4.0 | 16.0 | 0.00 | 0.00 | 0.00 | 100 | 949.3 |
| 20260506150828 | 69 | 172 | 5.0 | 17.0 | 0.00 | 0.00 | 0.00 | 100 | 949.2 |
| 20260506150626 | 69 | 171 | 4.0 | 17.0 | 0.00 | 0.00 | 0.00 | 100 | 949.3 |
| 20260506150423 | 70 | 201 | 2.0 | 10.0 | 0.00 | 0.00 | 0.00 | 100 | 949.3 |
| 20260506150323 | 70 | 179 | 4.0 | 15.0 | 0.00 | 0.00 | 0.00 | 100 | 949.4 |
| 20260506150220 | 70 | 178 | 4.0 | 15.0 | 0.00 | 0.00 | 0.00 | 100 | 949.4 |
| 20260506150017 | 70 | 174 | 4.0 | 15.0 | 0.00 | 0.00 | 0.00 | 100 | 949.4 |
| 20260506145814 | 70 | 178 | 3.0 | 13.0 | 0.00 | 0.00 | 0.00 | 100 | 949.3 |
| 20260506145713 | 70 | 177 | 4.0 | 14.0 | 0.00 | 0.00 | 0.00 | 100 | 949.4 |
| 20260506145610 | 70 | 182 | 3.0 | 14.0 | 0.00 | 0.00 | 0.00 | 100 | 949.4 |
| 20260506145407 | 69 | 188 | 4.0 | 14.0 | 0.00 | 0.00 | 0.00 | 100 | 949.3 |
| 20260506145204 | 69 | 184 | 4.0 | 14.0 | 0.00 | 0.00 | 0.00 | 100 | 949.4 |
| 20260506145104 | 69 | 185 | 4.0 | 14.0 | 0.00 | 0.00 | 0.00 | 100 | 949.3 |
| 20260506145002 | 69 | 181 | 4.0 | 15.0 | 0.00 | 0.00 | 0.00 | 100 | 949.3 |
| 20260506144758 | 69 | 187 | 4.0 | 15.0 | 0.00 | 0.00 | 0.00 | 100 | 949.5 |
| 20260506144555 | 69 | 188 | 4.0 | 14.0 | 0.00 | 0.00 | 0.00 | 100 | 949.5 |
| 20260506144455 | 69 | 189 | 4.0 | 14.0 | 0.00 | 0.00 | 0.00 | 100 | 949.5 |
| 20260506144353 | 69 | 191 | 4.0 | 13.0 | 0.00 | 0.00 | 0.00 | 100 | 949.5 |
| 20260506144149 | 69 | 192 | 4.0 | 15.0 | 0.00 | 0.00 | 0.00 | 100 | 949.4 |
| 20260506143946 | 69 | 191 | 4.0 | 15.0 | 0.00 | 0.00 | 0.00 | 100 | 949.4 |
| 20260506143845 | 69 | 194 | 3.0 | 15.0 | 0.00 | 0.00 | 0.00 | 100 | 949.5 |
| 20260506143743 | 70 | 191 | 4.0 | 15.0 | 0.00 | 0.00 | 0.00 | 100 | 949.3 |
| 20260506143540 | 70 | 198 | 4.0 | 16.0 | 0.00 | 0.00 | 0.00 | 100 | 949.3 |
| 20260506143337 | 70 | 203 | 3.0 | 13.0 | 0.00 | 0.00 | 0.00 | 100 | 949.5 |
| 20260506143236 | 70 | 204 | 2.0 | 9.0 | 0.00 | 0.00 | 0.00 | 100 | 949.5 |
| 20260506143134 | 70 | 201 | 2.0 | 13.0 | 0.00 | 0.00 | 0.00 | 100 | 949.4 |
| 20260506142931 | 70 | 192 | 3.0 | 14.0 | 0.00 | 0.00 | 0.00 | 100 | 949.6 |
| 20260506142728 | 70 | 196 | 3.0 | 14.0 | 0.00 | 0.00 | 0.00 | 100 | 949.4 |
| 20260506142627 | 70 | 210 | 3.0 | 14.0 | 0.00 | 0.00 | 0.00 | 100 | 949.5 |
| 20260506142525 | 70 | 204 | 3.0 | 9.0 | 0.00 | 0.00 | 0.00 | 100 | 949.5 |
| 20260506142321 | 70 | 201 | 3.0 | 10.0 | 0.00 | 0.00 | 0.00 | 100 | 949.5 |
| 20260506142118 | 70 | 193 | 3.0 | 12.0 | 0.00 | 0.00 | 0.00 | 100 | 949.4 |